COMPLETED DISPATCHED CALLS FOR SERVICE

Welcome to the Jacksonville Sheriff’s Office Completed Dispatched Calls for Service webpage. This page displays calls for service made to the Jacksonville Sheriff's Office that have recently been completed. The data on this page is refreshed automatically.

This information is not intended to be used as official crime data. This program does not provide information about all crimes, and excludes specific incidents such as sexual assaults and child abuse.

Disclaimer: The Jacksonville Sheriff's Office makes every effort to produce and publish current and accurate information. No warranties, expressed or implied, are provided for the data herein, its use, or its interpretation. The services provided are for informational purposes only and should not be relied on for any type of legal action.

Last refreshed 7/8 00:38:30

Incident # Dispatched Block Address Signal Call Description  
150708463524 7-8 00:29 4700 W MONCRIEF RD 1050 TRAFFIC STOP
150708463522 7-8 00:28 2700 STARRATT RD 13 SUSPICIOUS PERSON
150708463520 7-8 00:25 HUBBARD ST AND CONFEDERATE ST 13 SUSPICIOUS PERSON
150708463500 7-8 00:17 4200 W MONCRIEF RD 0 61 FIGHT W/WEAPON
150708463489 7-8 00:07 FOREST BLVD AND BEACH BLVD 13 SUSPICIOUS PERSON
150708463485 7-8 00:06 FT CAROLINE RD AND TOWNSEND BLVD 1050 TRAFFIC STOP
150708463481 7-8 00:05 13600 BEACH BLVD 37 UNVERIFIED 911 CALL
150708463477 7-8 00:02 RUTLEDGE AVE AND OPREY ST 1050 TRAFFIC STOP
150708463474 7-8 00:01 N ELLIS RD AND COMMONWEALTH AVE 1050 TRAFFIC STOP
150708463472 7-8 00:00 W 48TH ST AND N MAIN ST 1050 TRAFFIC STOP
150707463470 7-7 23:57 8200 MERRILL RD 13 SUSPICIOUS PERSON
150707463467 7-7 23:57 6100 MAGGIES CIR 13 SUSPICIOUS PERSON
150707463426 7-7 23:56 100 E 18TH ST 73 DRUG INVESTIGATION
150707463460 7-7 23:50 S PEARL ST AND WATER ST 76 ASSIST OTHER AGENCY
150707463457 7-7 23:49 3500 COMMONWEALTH AVE 63 DISPUTE
150707463458 7-7 23:49 8500 COCOA AVE 22 DOMESTIC DISTURBANCE
150707463455 7-7 23:48 UNIVERSITY BLVD AND MERRILL RD 1050 TRAFFIC STOP
150707463454 7-7 23:48 RIVERVIEW ST AND 3RD AVE 13 SUSPICIOUS PERSON
150707463451 7-7 23:46 1500 S LANE AVE 63 DISPUTE
150707463408 7-7 23:44 10200 ALDEN RD 1066 CANCEL
150707463444 7-7 23:44 10000 SKINNER LAKE DR 64 NOISE COMPLAINT
150707463450 7-7 23:42 EMERSON ST AND GRANT RD 1050 TRAFFIC STOP
150707463443 7-7 23:38 5700 ANSLEY ST 64 NOISE COMPLAINT
150707463422 7-7 23:37 E CEDAR TRACE DR AND AUTUMN CREST BLVD 13 SUSPICIOUS PERSON
150707463438 7-7 23:37 6700 103RD ST 2 63 DISPUTE INVOLVING ALCOHOL
150707463437 7-7 23:37 100 S DAMES POINT BRG 12 RECKLESS DRIVER
150707463433 7-7 23:35 5600 SEABOARD AVE 32 BURGLAR ALARM - AUDIBLE
150707463434 7-7 23:34 S I295 EXPWY AND SAN JOSE BLVD 12 RECKLESS DRIVER
150707463425 7-7 23:33 2200 DUNN AVE 32 BURGLAR ALARM - AUDIBLE
150707463431 7-7 23:33 W DUVAL ST AND N JEFFERSON ST 1050 TRAFFIC STOP
150707463427 7-7 23:30 HARTSFIELD RD AND N DAMES POINT CROSSING BLVD 1050 TRAFFIC STOP
150707463419 7-7 23:25 2300 LANTANA AVE 22 DOMESTIC DISTURBANCE
150707463418 7-7 23:23 100 N BUCKMAN BRG 96 ASSIST MOTORIST
150707463415 7-7 23:23 E 10TH ST AND LAMBERT ST 33 DISCHARGING OF FIREARM
150707463417 7-7 23:22 5100 PALMER AVE 13 SUSPICIOUS PERSON
150707463413 7-7 23:20 2200 DUNN AVE 32 BURGLAR ALARM - AUDIBLE
150707463398 7-7 23:20 1300 DUNN AVE 13 SUSPICIOUS PERSON
150707463412 7-7 23:19 3100 SOUTHSIDE BLVD 32 BURGLAR ALARM - AUDIBLE
150707463410 7-7 23:15 7800 BERRY AVE 76 ASSIST OTHER AGENCY
150707463396 7-7 23:14 1000 WATER ST 63 DISPUTE
150707463409 7-7 23:14 7600 ORLANDO AVE 63 DISPUTE
150707463401 7-7 23:13 7500 N FAWN LAKE DR 63 DISPUTE
150707463403 7-7 23:13 9600 BAYOU BLUFF DR 63 DISPUTE
150707463406 7-7 23:12 MARTIN LUTHER KING JR PKWY AND N LIBERTY ST 1050 TRAFFIC STOP
150707463400 7-7 23:12 9700 OLD BAYMEADOWS RD 32 BURGLAR ALARM - AUDIBLE
150707463402 7-7 23:11 W UNIVERSITY BLVD AND SPRING PARK RD 1050 TRAFFIC STOP
150707463363 7-7 23:09 1000 GOLFAIR BLVD 63 DISPUTE
150707463394 7-7 23:08 N JEFFERSON ST AND W 3RD ST 1050 TRAFFIC STOP
150707463393 7-7 23:08 10500 CRESTON GLEN CIR 32 BURGLAR ALARM - AUDIBLE
150707463391 7-7 23:05 W UNIVERSITY BLVD AND TERRY RD 1050 TRAFFIC STOP
150707463389 7-7 23:04 10200 LEM TURNER RD 1066 CANCEL
150707463384 7-7 23:03 100 N BUCKMAN BRG 96 ASSIST MOTORIST
150707463386 7-7 23:03 3300 S SUNNYBROOK AVE 27 MENTALLY ILL PERSON
150707463387 7-7 23:02 SUNBEAM RD AND CRAVEN RD 13 SUSPICIOUS PERSON
150707463380 7-7 23:02 3600 S LANE AVE 63 DISPUTE
150707463385 7-7 23:01 DAMES POINT CROSSING BLVD AND MERRILL RD 1050 TRAFFIC STOP
150707463382 7-7 23:00 1000 ARDOON ST 76 ASSIST OTHER AGENCY
150707463381 7-7 23:00 10400 SAN JOSE BLVD 32 BURGLAR ALARM - AUDIBLE
150707463378 7-7 22:58 N MAIN ST AND E ORANGE ST 76 ASSIST OTHER AGENCY
150707463376 7-7 22:57 12400 PUMPKIN HILL RD 63 DISPUTE
150707463375 7-7 22:57 10900 BRENTFIELD RD 32 BURGLAR ALARM - AUDIBLE
150707463373 7-7 22:55 4000 SUNBEAM RD 1050 TRAFFIC STOP
150707463370 7-7 22:54 HILLMAN DR AND S RENAULT DR 1050 TRAFFIC STOP
150707463369 7-7 22:54 200 W UNION ST 13 SUSPICIOUS PERSON
150707463365 7-7 22:53 W 45TH ST AND DODGE RD 33 DISCHARGING OF FIREARM
150707463362 7-7 22:51 4000 DELLWOOD AVE 63 DISPUTE
150707463358 7-7 22:49 2800 S UNIVERSITY BLVD 32 BURGLAR ALARM - AUDIBLE
150707463334 7-7 22:49 300 E 17TH ST 63 DISPUTE
150707463353 7-7 22:48 10400 MIDTOWN PKWY 64 NOISE COMPLAINT
150707463357 7-7 22:48 E 8TH ST AND WESTCOTT ST 1050 TRAFFIC STOP
150707463356 7-7 22:48 8500 BLANDING BLVD 63 DISPUTE
150707463354 7-7 22:47 SAN/OLD 1050 TRAFFIC STOP
150707463350 7-7 22:47 SAN JOSE BLVD AND ST AUGUSTINE RD 1 IMPAIRED/RECKLESS DRIVER
150707463343 7-7 22:46 4400 E MELVIN CIR 0 63 ARMED DISPUTE
150707463348 7-7 22:44 S SAN PABLO RD AND CASTAWAY DR 16 ROAD OBSTRUCTION
150707463328 7-7 22:43 9900 NEW KINGS RD 37 UNVERIFIED 911 CALL
150707463347 7-7 22:43 PHILLIPS HWY AND BOWDEN RD 1050 TRAFFIC STOP
150707463331 7-7 22:42 2000 PALAFOX ST 2288 DOMESTIC DISPUTE WITH/ASSAULT
150707463336 7-7 22:38 WONDERWOOD DR AND SRA1A HWY 1050 TRAFFIC STOP
150707463330 7-7 22:38 2100 EMERSON ST 19 ANIMAL INVESTIGATION
150707463333 7-7 22:37 1400 DUNN AVE 13 SUSPICIOUS PERSON
150707463332 7-7 22:36 BROWARD RD AND VILLANOVA RD 1050 TRAFFIC STOP
150707463329 7-7 22:34 11000 HARTS RD 13 SUSPICIOUS PERSON
150707463327 7-7 22:34 N RIDGEWAY RD AND FIRESTONE RD 1050 TRAFFIC STOP
150707463326 7-7 22:33 HELENA ST AND SMYRNA ST 1050 TRAFFIC STOP
150707463325 7-7 22:33 3700 TOLEDO RD 90 FIREWORKS
150707463316 7-7 22:33 5500 MONCRIEF RD 13 SUSPICIOUS PERSON
150707463322 7-7 22:32 4500 S SAN PABLO RD 13 SUSPICIOUS PERSON
150707463315 7-7 22:30 8300 GALVESTON AVE 63 DISPUTE
150707463317 7-7 22:29 DUNN CREEK RD AND NEW BERLIN RD 6388 DISPUTE WITH ASSAULT
150707463310 7-7 22:29 8100 ALDERMAN RD 63 DISPUTE
150707463307 7-7 22:28 14000 BEACH BLVD 88 ASSAULT
150707463309 7-7 22:27 4800 N MAIN ST 60 SUICIDE OR ATTEMPT
150707463311 7-7 22:27 RIBAULT AVE AND TROUT RIVER BLVD 96 ASSIST MOTORIST
150707463308 7-7 22:27 1200 S MC DUFF AVE 64 NOISE COMPLAINT
150707463306 7-7 22:25 103RD ST AND FIRESTONE RD 1050 TRAFFIC STOP
150707463305 7-7 22:25 MERRILL RD AND HARTSFIELD RD 1050 TRAFFIC STOP
150707463300 7-7 22:24 TURNER AVE AND CLINTON AVE 13 SUSPICIOUS PERSON
150707463303 7-7 22:22 1500 W 31ST ST 13 SUSPICIOUS PERSON
150707463298 7-7 22:21 8300 S BRACKRIDGE BLVD 56 JUVENILE COMPLAINT
150707463245 7-7 22:21 W 15TH ST AND PALAFOX ST 63 DISPUTE
150707463260 7-7 22:20 TERRY RD AND W UNIVERSITY BLVD 90 FIREWORKS
150707463285 7-7 22:20 ALADDIN RD AND JULINGTON CREEK RD 56 JUVENILE COMPLAINT
150707463292 7-7 22:18 4200 SUNBEAM RD 2 63 DISPUTE INVOLVING ALCOHOL
150707463295 7-7 22:18 8900 LONE STAR RD 32 BURGLAR ALARM - AUDIBLE
150707463275 7-7 22:16 6100 BARTRAM VILLAGE DR 64 NOISE COMPLAINT
150707463291 7-7 22:16 MT PLEASANT RD AND GIRVIN RD 1050 TRAFFIC STOP
150707463219 7-7 22:15 5500 HARROLD AVE 27 MENTALLY ILL PERSON
150707463288 7-7 22:15 LENOX AVE AND S MC DUFF AVE 2 DRUNK PERSON
150707463284 7-7 22:13 HAVERHILL ST AND E STARWAN RD 13 SUSPICIOUS PERSON
150707463283 7-7 22:13 PROSPECT ST AND LOWELL AVE 4 AUTO CRASH
150707463276 7-7 22:13 3700 STUART ST 22 DOMESTIC DISTURBANCE
150707463282 7-7 22:12 400 N CHAFFEE RD 16 ROAD OBSTRUCTION
150707463281 7-7 22:12 FIRESTONE RD AND 103RD ST 1050 TRAFFIC STOP
150707463239 7-7 22:10 700 AQUA SURF CT 63 DISPUTE
150707463277 7-7 22:09 3700 STAR LEAF DR 12 RECKLESS DRIVER
150707463272 7-7 22:09 1100 WOODRUFF AVE 2 63 DISPUTE INVOLVING ALCOHOL
150707463247 7-7 22:08 2300 PHILIPS HWY 2 63 DISPUTE INVOLVING ALCOHOL
150707463273 7-7 22:08 11500 HARTS RD 13 SUSPICIOUS PERSON
150707463259 7-7 22:08 7000 S OLD KINGS RD 64 NOISE COMPLAINT
150707463269 7-7 22:06 N MAIN ST AND W 7TH ST 1050 TRAFFIC STOP
150707463266 7-7 22:05 1600 N MYRTLE AVE 56 JUVENILE COMPLAINT
150707463267 7-7 22:05 15200 N MAIN ST 13 SUSPICIOUS PERSON
150707463264 7-7 22:04 4200 SUNBEAM RD 63 DISPUTE
150707463265 7-7 22:04 Z4 GAS PUMPS ON WILSON 1050 TRAFFIC STOP
150707463253 7-7 22:04 3200 HARTLEY RD 64 NOISE COMPLAINT
150707463256 7-7 22:03 2000 DEAN RD 14RJ VANDALISM RESIDENCE JUST OCCURRED
150707463255 7-7 22:02 1300 STEELE ST 8 MISSING PERSON
150707463258 7-7 22:01 7100 MERRILL RD 1050 TRAFFIC STOP
150707463257 7-7 22:01 HART/EVERSON 1050 TRAFFIC STOP
150707463252 7-7 21:59 1000 BROWARD RD 1050 TRAFFIC STOP
150707463251 7-7 21:59 E 12TH ST AND FRANKLIN ST 13 SUSPICIOUS PERSON
150707463250 7-7 21:59 10700 LEM TURNER RD 1050 TRAFFIC STOP
150707463231 7-7 21:59 600 MONUMENT RD 90 FIREWORKS
150707463249 7-7 21:58 N MAIN ST AND DUVAL STATION RD 1050 TRAFFIC STOP
150707463248 7-7 21:58 E 27TH ST AND N MAIN ST 1050 TRAFFIC STOP
150707463234 7-7 21:58 ELLA ST AND MC MILLAN ST 0 13 ARMED SUSPICIOUS PERSON
150707463241 7-7 21:57 OLD ST AUGUSTINE RD AND KORI RD 13 SUSPICIOUS PERSON
150707463236 7-7 21:56 2300 LANTANA AVE 22 DOMESTIC DISTURBANCE
150707463223 7-7 21:54 3800 WHITEHALL ST 63 DISPUTE
150707463242 7-7 21:54 7500 PRICE RD 13 SUSPICIOUS PERSON
150707463226 7-7 21:54 9500 PHILLIPS HWY 3 HIT AND RUN CRASH
150707463225 7-7 21:54 8100 W BAYMEADOWS WAY 32 BURGLAR ALARM - AUDIBLE
150707463213 7-7 21:54 5700 ST AUGUSTINE RD 1066 CANCEL
150707463155 7-7 21:54 8200 EATON AVE 63 DISPUTE
150707463238 7-7 21:53 103/HILLMAN 1050 TRAFFIC STOP
150707463196 7-7 21:53 1000 BERT RD 63 DISPUTE
150707463163 7-7 21:52 2500 ATLANTIC BLVD 63 DISPUTE
150707463235 7-7 21:52 WONDERWOOD DR AND SRA1A HWY 1050 TRAFFIC STOP
150707463233 7-7 21:51 4200 SUNBEAM RD 1050 TRAFFIC STOP
150707463230 7-7 21:50 7100 MERRILL RD 1050 TRAFFIC STOP
150707463228 7-7 21:49 DAY AVE AND HUNT ST 76 ASSIST OTHER AGENCY
150707463203 7-7 21:48 3000 S BEAUCLERC OAKS DR 63 DISPUTE
150707463216 7-7 21:48 BLANDING BLVD AND LAKE SHORE BLVD 64 NOISE COMPLAINT
150707463227 7-7 21:48 2800 E SAN PABLO DR 4 AUTO CRASH
150707463212 7-7 21:48 9500 CROSSHILL BLVD 64 NOISE COMPLAINT
150707463201 7-7 21:47 100 N KERNAN BLVD 2 63 DISPUTE INVOLVING ALCOHOL
150707463224 7-7 21:47 103RD ST AND FIRESTONE RD 13 SUSPICIOUS PERSON
150707463221 7-7 21:47 1500 W 33RD ST 32X SILENT ALARM (ROBBERY PANIC OR AWARE)
150707463218 7-7 21:46 COLLEGE ST AND S EDGEWOOD AVE 16 ROAD OBSTRUCTION
150707463204 7-7 21:45 100 E 32ND ST 19 ANIMAL INVESTIGATION
150707463214 7-7 21:45 SAN JOSE BLVD AND SILVERY LN 96 ASSIST MOTORIST
150707463215 7-7 21:44 103RD ST AND DANIELL TER 1050 TRAFFIC STOP
150707463210 7-7 21:43 W I10 EXPWY AND S LANE AVE 13 SUSPICIOUS PERSON
150707463185 7-7 21:43 TOLEDO RD AND S OLD KINGS RD 33 DISCHARGING OF FIREARM
150707463200 7-7 21:43 1500 S LANE AVE 13 SUSPICIOUS PERSON
150707463208 7-7 21:41 WHEAT RD AND NAUGHTON LN 1050 TRAFFIC STOP
150707463207 7-7 21:41 5500 N UNIVERSITY CLUB BLVD 1050 TRAFFIC STOP
150707463205 7-7 21:39 HILLMAN DR AND FALCON ST 1050 TRAFFIC STOP
150707463191 7-7 21:38 8700 PHILLIPS HWY 13 SUSPICIOUS PERSON
150707463199 7-7 21:38 W 67TH ST AND KENYON ST 29 WIRE DOWN
150707463202 7-7 21:38 N MYRTLE AVE AND KINGS RD 1050 TRAFFIC STOP
150707463198 7-7 21:37 MT PLEASANT RD AND GIRVIN RD 1050 TRAFFIC STOP
150707463190 7-7 21:36 FOXBRIAR CV AND RED HOLLY LN 64 NOISE COMPLAINT
150707463193 7-7 21:33 1300 PLYMOUTH ST 13 SUSPICIOUS PERSON
150707463192 7-7 21:32 2000 REDWING ST 30 KIDNAPPING
150707463114 7-7 21:31 3200 DE CARLO LN 21R BURGLARY RESIDENCE
150707463119 7-7 21:29 4000 CONFEDERATE POINT RD 2 63 DISPUTE INVOLVING ALCOHOL
150707463154 7-7 21:29 12200 COUNTRY COVE CT 63 DISPUTE
150707463183 7-7 21:28 15900 HUTTON LN 13 SUSPICIOUS PERSON
150707463128 7-7 21:28 14700 BARTRAM PARK BLVD 63 DISPUTE
150707463180 7-7 21:27 HODGES BLVD AND BEACH BLVD 13 SUSPICIOUS PERSON
150707463178 7-7 21:26 3600 S UNIVERSITY BLVD 27 MENTALLY ILL PERSON
150707463177 7-7 21:26 NOROAD AND LAMBING RD 1050 TRAFFIC STOP
150707463170 7-7 21:26 10400 DEERWOOD PARK BLVD 1066 CANCEL
150707463135 7-7 21:24 8900 FREE AVE 2288 DOMESTIC DISPUTE WITH/ASSAULT
150707463168 7-7 21:23 3900 OLD SUNBEAM RD 2 63 DISPUTE INVOLVING ALCOHOL
150707463165 7-7 21:23 MC GLOTHLIN ST AND N OLD MIDDLEBURG RD 0 13 ARMED SUSPICIOUS PERSON
150707463167 7-7 21:23 6500 KATHRYN DR 0 63 ARMED DISPUTE
150707463164 7-7 21:21 1200 GRUNTHAL ST 63 DISPUTE
150707463097 7-7 21:19 BLANDING BLVD AND LAKE SHORE BLVD 64 NOISE COMPLAINT
150707463147 7-7 21:19 N PEARL ST AND W MONROE ST 13 SUSPICIOUS PERSON
150707463120 7-7 21:19 3000 DIGNAN ST 63 DISPUTE
150707463141 7-7 21:18 E I10 EXPWY AND S US 301 HWY 12 RECKLESS DRIVER
150707463099 7-7 21:18 1400 EDDY RD 90 FIREWORKS
150707463161 7-7 21:18 3000 JONES RD 1066 CANCEL
150707463153 7-7 21:17 4300 VICTOR ST 22 DOMESTIC DISTURBANCE
150707463142 7-7 21:17 9800 HUTCHINSON PARK DR 5582 HOLDING ONE FOR SHOPLIFTING
150707463144 7-7 21:16 10200 SHOPS LN 1066 CANCEL
150707463146 7-7 21:15 S I95 EXPWY AND W EDGEWOOD AVE 96 ASSIST MOTORIST
150707463151 7-7 21:15 3200 PLYMOUTH ST 50 FOUND/ABANDONED PROPERTY
150707463129 7-7 21:14 9100 NORMANDY BLVD 63 DISPUTE
150707463130 7-7 21:13 12300 E SUMTER SQUARE DR 37 UNVERIFIED 911 CALL
150707463145 7-7 21:13 6400 ROBINSON RD 19 ANIMAL INVESTIGATION
150707463143 7-7 21:12 10200 SAN JOSE BLVD 13 SUSPICIOUS PERSON
150707463116 7-7 21:11 2800 CALUMET CIR 22 DOMESTIC DISTURBANCE
150707463091 7-7 21:10 5900 FIRESTONE RD 63 DISPUTE
150707463140 7-7 21:09 S I95 EXPWY AND S TROUT RIVER BRG 96 ASSIST MOTORIST
150707463115 7-7 21:08 10900 SAN JOSE BLVD 3 HIT AND RUN CRASH
150707463093 7-7 21:05 OGRAM ST AND PHYLLIS ST 90 FIREWORKS
150707463133 7-7 21:05 ST AUGUSTINE RD AND S OLD KINGS RD 1050 TRAFFIC STOP
150707463132 7-7 21:05 S MC DUFF AVE AND WARRINGTON ST 13 SUSPICIOUS PERSON
150707463131 7-7 21:05 14000 GOSSETT ST 13 SUSPICIOUS PERSON
150707463092 7-7 21:03 13500 BARTRAM PARK BLVD 63 DISPUTE
150707463125 7-7 21:02 500 SAPELO RD 2 63 DISPUTE INVOLVING ALCOHOL
150707463123 7-7 21:01 S MC DUFF AVE AND EDISON AVE 1050 TRAFFIC STOP
150707463122 7-7 21:01 ARGYLE FOREST BLVD AND RAMPART RD 1050 TRAFFIC STOP
150707463121 7-7 21:00 SPENCER ST AND S MC DUFF AVE 1050 TRAFFIC STOP
150707463108 7-7 20:59 9000 3RD AVE 22 DOMESTIC DISTURBANCE
150707463102 7-7 20:58 800 BUNKER HILL BLVD 8 MISSING PERSON
150707463117 7-7 20:57 NEW KINGS RD AND PITTS RD 1050 TRAFFIC STOP
150707463107 7-7 20:57 S I95 EXPWY AND MARTIN LUTHER KING JR PKWY 16 ROAD OBSTRUCTION
150707463081 7-7 20:56 5200 ATLANTIC BLVD 63 DISPUTE
150707463098 7-7 20:56 EDISON AVE AND BROWARD ST 33 DISCHARGING OF FIREARM
150707463110 7-7 20:56 BEACH BLVD AND HODGES BLVD 12 RECKLESS DRIVER
150707463095 7-7 20:56 N I95 EXPWY AND MARTIN LUTHER KING JR PKWY 13 SUSPICIOUS PERSON
150707463112 7-7 20:55 NEW KINGS RD AND N EDGEWOOD AVE 13 SUSPICIOUS PERSON
150707463066 7-7 20:55 900 DUNN AVE 63 DISPUTE
150707463104 7-7 20:55 3200 PLYMOUTH ST 27 MENTALLY ILL PERSON
150707463109 7-7 20:55 6300 SUWANEE RD 90 FIREWORKS
150707463111 7-7 20:54 THOMAS ST AND DAY AVE 1050 TRAFFIC STOP
150707463101 7-7 20:53 W BEAVER ST AND N MC DUFF AVE 1050 TRAFFIC STOP
150707463045 7-7 20:52 1500 LANDAU RD 2288 DOMESTIC DISPUTE WITH/ASSAULT
150707463096 7-7 20:51 S I95 EXPWY 4 AUTO CRASH
150707463094 7-7 20:50 GOSSETT ST AND CASTLEBERRY RD 1050 TRAFFIC STOP
150707463047 7-7 20:50 11800 W COASTAL LN 13 SUSPICIOUS PERSON
150707463088 7-7 20:49 7900 PIPIT AVE 8 MISSING PERSON
150707463090 7-7 20:49 4100 W ORIELY DR 1050 TRAFFIC STOP
150707463087 7-7 20:49 13400 BEACH BLVD 3 HIT AND RUN CRASH
150707463089 7-7 20:48 S I95 EXPWY AND EMERSON ST 1050 TRAFFIC STOP
150707463086 7-7 20:48 LENOX AVE AND S MC DUFF AVE 1050 TRAFFIC STOP
150707463084 7-7 20:48 600 N LINCOLN CT 37 UNVERIFIED 911 CALL
150707463085 7-7 20:47 S I95 EXPWY AND PECAN PARK RD 1066 CANCEL
150707463083 7-7 20:46 9200 103RD ST 32 BURGLAR ALARM - AUDIBLE
150707463074 7-7 20:44 HODGES BLVD AND BEACH BLVD 90 FIREWORKS
150707463078 7-7 20:44 N MC DUFF AVE AND COMMONWEALTH AVE 56 JUVENILE COMPLAINT
150707463082 7-7 20:44 400 TROUT RIVER DR 80 PROSTITUTION (ONLY)
150707463026 7-7 20:43 2000 BLANDING BLVD 64 NOISE COMPLAINT
150707463077 7-7 20:42 CLYDE/ROWE 1050 TRAFFIC STOP
150707463075 7-7 20:41 1800 N DAVIS ST 56 JUVENILE COMPLAINT
150707463072 7-7 20:41 9300 THUNDERBOLT DR 63 DISPUTE
150707463015 7-7 20:40 400 E 46TH ST 64 NOISE COMPLAINT
150707463073 7-7 20:40 BARTRAM PARK BLVD AND BARTRAM RUN DR 96 ASSIST MOTORIST
150707463011 7-7 20:38 200 E STATE ST 63 DISPUTE
150707463068 7-7 20:37 3900 SPRING PARK RD 37 UNVERIFIED 911 CALL
150707463062 7-7 20:37 10400 GREENMORE DR 21R BURGLARY RESIDENCE
150707463069 7-7 20:37 DAY AVE AND LENOX AVE 1050 TRAFFIC STOP
150707463067 7-7 20:36 NORMANDY BLVD AND MEMORIAL PARK RD 1050 TRAFFIC STOP
150707463032 7-7 20:36 6500 WHITE BLOSSOM CIR 2288 DOMESTIC DISPUTE WITH/ASSAULT
150707463025 7-7 20:35 2300 MISTY DR 22 DOMESTIC DISTURBANCE
150707463065 7-7 20:35 14200 GOSSETT ST 13 SUSPICIOUS PERSON
150707463020 7-7 20:35 7400 POWERS AVE 76 ASSIST OTHER AGENCY
150707463046 7-7 20:34 10900 HARTS RD 63 DISPUTE
150707463064 7-7 20:34 LENOX AVE AND DAY AVE 1050 TRAFFIC STOP
150707463058 7-7 20:33 7100 MARBLE CT 60 SUICIDE OR ATTEMPT
150707463059 7-7 20:33 J TURNER BUTLER BLVD AND HODGES BLVD 12 RECKLESS DRIVER
150707463050 7-7 20:33 14500 OLD ST AUGUSTINE RD 0 13 ARMED SUSPICIOUS PERSON
150707463060 7-7 20:32 100 KING 1050 TRAFFIC STOP
150707463057 7-7 20:31 5500 E LAKEWOOD CIR 76 ASSIST OTHER AGENCY
150707463056 7-7 20:30 ROOSEVELT BLVD AND WABASH AVE 1050 TRAFFIC STOP
150707463014 7-7 20:30 1000 S EDGEWOOD AVE 13 SUSPICIOUS PERSON
150707463038 7-7 20:30 BRADDOCK RD AND RAYWILL DR 1066 CANCEL
150707463001 7-7 20:28 WILLOW BRANCH AVE AND PARK ST 6388 DISPUTE WITH ASSAULT
150707463017 7-7 20:28 4600 PINEWOOD AVE 21C BURGLARY CONVEYANCE
150707463051 7-7 20:27 ZONE4 38 TRAFFIC ASSIGNMENT
150707463042 7-7 20:27 BARTRAM PARK BLVD AND DEEP LEAF DR 13 SUSPICIOUS PERSON
150707463040 7-7 20:26 1200 W BEAVER ST 32 BURGLAR ALARM - AUDIBLE
150707463044 7-7 20:26 SAN JOSE BLVD AND CLAIRE LN 1050 TRAFFIC STOP
150707463035 7-7 20:25 5500 W NORDE DR 12 RECKLESS DRIVER
150707463041 7-7 20:24 4100 W ORIELY DR 1050 TRAFFIC STOP
150707463030 7-7 20:24 4100 W ORIELY DR 56 JUVENILE COMPLAINT
150707463034 7-7 20:22 N HUNT CLUB RD AND STATION CREEK RD 38 TRAFFIC ASSIGNMENT
150707463033 7-7 20:22 3600 IONIA ST 80 PROSTITUTION (ONLY)
150707463031 7-7 20:22 2000 PALMDALE ST 21C BURGLARY CONVEYANCE
150707462934 7-7 20:21 12600 BLUE LAGOON TRL 32 BURGLAR ALARM - AUDIBLE
150707463027 7-7 20:21 10400 N CENTURION PKWY 32 BURGLAR ALARM - AUDIBLE
150707463004 7-7 20:21 1700 W 24TH ST 63 DISPUTE
150707463024 7-7 20:20 7500 ATLANTIC BLVD 37 UNVERIFIED 911 CALL
150707463022 7-7 20:20 1100 E 15TH ST 61 FIGHT
150707462913 7-7 20:19 11000 HARTS RD 73 DRUG INVESTIGATION
150707463023 7-7 20:19 ST JOHNS AVE AND ROOSEVELT BLVD 1050 TRAFFIC STOP
150707463019 7-7 20:18 WILLOW BRANCH AVE AND FITZGERALD ST 1050 TRAFFIC STOP
150707463000 7-7 20:17 5000 COLONIAL AVE 22 DOMESTIC DISTURBANCE
150707462966 7-7 20:16 6500 LAKE GRAY BLVD 63 DISPUTE
150707463009 7-7 20:16 2600 N CLEAR CIR 13 SUSPICIOUS PERSON
150707462996 7-7 20:15 800 PRUDENTIAL DR 4 AUTO CRASH
150707463010 7-7 20:15 1500 E 15TH ST 5388 ASSAULT INVOLVING INJURY
150707463012 7-7 20:14 11300 SAN JOSE BLVD 96 ASSIST MOTORIST
150707462999 7-7 20:13 5200 BENNING RD 1066 CANCEL
150707463006 7-7 20:12 2800 FITZGERALD ST 12 RECKLESS DRIVER
150707462997 7-7 20:12 1100 CRESTDALE ST 2288 DOMESTIC DISPUTE WITH/ASSAULT
150707463003 7-7 20:12 MEMORIAL PARK RD AND N OLD MIDDLEBURG RD 1050 TRAFFIC STOP
150707462992 7-7 20:11 8800 DANDY AVE 22 DOMESTIC DISTURBANCE
150707462955 7-7 20:11 IONIA ST AND E UNION ST 54 ILLEGALLY PARKED CAR
150707462994 7-7 20:11 5600 AUBURN RD 63 DISPUTE
150707462929 7-7 20:11 3700 SOUTEL DR 9T THEFT (TELESERVE)
150707462988 7-7 20:11 2000 HODGES BLVD 63 DISPUTE
150707462991 7-7 20:11 3000 MONCRIEF RD 63 DISPUTE
150707462993 7-7 20:11 SAN JOSE BLVD AND SUNBEAM RD 13 SUSPICIOUS PERSON
150707462989 7-7 20:09 COLLEGE ST AND JAMES ST 1050 TRAFFIC STOP
150707462987 7-7 20:08 S MC DUFF AVE AND NOLAN ST 1050 TRAFFIC STOP
150707462949 7-7 20:07 8200 OLD ENGLISH DR 28 DELIVER MESSAGE
150707462984 7-7 20:07 3500 TOWNSEND BLVD 9 THEFT
150707462982 7-7 20:06 7500 POWERS AVE 0 63 ARMED DISPUTE
150707462937 7-7 20:06 1700 BRISTLECONE PINE PL 3 HIT AND RUN CRASH
150707462967 7-7 20:05 11200 BEACH BLVD 63 DISPUTE
150707462977 7-7 20:05 7000 N MAIN ST 63 DISPUTE
150707462971 7-7 20:04 9000 NORFOLK BLVD 63 DISPUTE
150707462975 7-7 20:03 15100 N MAIN ST 13 SUSPICIOUS PERSON
150707462972 7-7 20:03 DUNN AVE AND RUTGERS RD 4 53 TRAFFIC CRASH PERSON INJURED
150707462973 7-7 20:02 8000 S OLD KINGS RD 22 DOMESTIC DISTURBANCE
150707462969 7-7 20:02 N I95 EXPWY AND W FORSYTH ST 12 RECKLESS DRIVER
150707462968 7-7 20:01 3500 KINGSTON ST 63 DISPUTE
150707462963 7-7 19:59 4600 BLANDING BLVD 63 DISPUTE
150707462959 7-7 19:59 1000 DYAL ST 2 22 DOMESTIC DISTURBANCE
150707462962 7-7 19:59 12700 N CHETS CREEK DR 13 SUSPICIOUS PERSON
150707462964 7-7 19:59 ST JOHNS/ROOS 1050 TRAFFIC STOP
150707462961 7-7 19:58 9900 OLD BAYMEADOWS RD 88 ASSAULT
150707462933 7-7 19:57 S I95 EXPWY AND W 8TH ST 19 ANIMAL INVESTIGATION
150707462958 7-7 19:57 1900 GAMEWELL RD 63 DISPUTE
150707462954 7-7 19:56 4300 SUNBEAM RD 90 FIREWORKS
150707462947 7-7 19:55 7600 LEM TURNER RD 63 DISPUTE
150707462942 7-7 19:55 POST ST AND KING ST 3 HIT AND RUN CRASH
150707462956 7-7 19:55 6300 BEACH BLVD 1050 TRAFFIC STOP
150707462950 7-7 19:54 5500 ANCHOR LN 7 DEAD PERSON
150707462945 7-7 19:53 7500 JASPER AVE 63 DISPUTE
150707462946 7-7 19:53 14800 N MAIN ST 13 SUSPICIOUS PERSON
150707462935 7-7 19:52 12200 HEARTLEAF CT 32 BURGLAR ALARM - AUDIBLE
150707462943 7-7 19:52 W I10 EXPWY AND S MC DUFF AVE 1050 TRAFFIC STOP
150707462940 7-7 19:51 2900 PHYLLIS ST 1050 TRAFFIC STOP
150707462939 7-7 19:51 2000 SOUTHSIDE 96 ASSIST MOTORIST
150707462938 7-7 19:51 W EDGEWOOD AVE AND S I95 EXPWY 1050 TRAFFIC STOP
150707462936 7-7 19:50 N I295 EXPWY AND SAN JOSE BLVD 96 ASSIST MOTORIST
150707462930 7-7 19:47 POST ST AND S MC DUFF AVE 1050 TRAFFIC STOP
150707462898 7-7 19:47 100 W UNION ST 63 DISPUTE
150707462928 7-7 19:47 8500 S TURKEY OAKS DR 1066 CANCEL
150707462927 7-7 19:46 11500 HARTS RD 63 DISPUTE
150707462921 7-7 19:46 4200 JILLIAN DR 13 SUSPICIOUS PERSON
150707462926 7-7 19:45 12100 LEM TURNER RD 63 DISPUTE
150707462922 7-7 19:44 10300 BEACH BLVD 56 JUVENILE COMPLAINT
150707462925 7-7 19:44 S I295 EXPWY AND WILSON BLVD 1050 TRAFFIC STOP
150707462909 7-7 19:44 100 W 5TH ST 13 SUSPICIOUS PERSON
150707462919 7-7 19:42 8200 FORSHEE DR 13 SUSPICIOUS PERSON
150707462918 7-7 19:41 N I95 EXPWY 13 SUSPICIOUS PERSON
150707462915 7-7 19:41 6700 S MISS MUFFET LN 9 THEFT
150707462916 7-7 19:41 N MAIN ST AND E EUBANKS ST 13 SUSPICIOUS PERSON
150707462914 7-7 19:40 700 N. MARKET ST. 4 AUTO CRASH
150707462907 7-7 19:39 REMLER DR AND CONDOR DR 90 FIREWORKS
150707462911 7-7 19:39 1000 PARADISE LN 63 DISPUTE
150707462908 7-7 19:38 3000 MONCRIEF RD 63 DISPUTE
150707462904 7-7 19:36 6800 LONE STAR RD 80 PROSTITUTION (ONLY)
150707462902 7-7 19:36 5600 NORWOOD AVE 32 BURGLAR ALARM - AUDIBLE
150707462901 7-7 19:35 2800 UNIVERSITY BLVD 3 HIT AND RUN CRASH
150707462847 7-7 19:34 6000 CHANNEL CT 21R BURGLARY RESIDENCE
150707462846 7-7 19:33 800 CORNWALLIS DR 11 ABANDONED VEHICLE
150707462900 7-7 19:32 MONCRIEF RD AND W EDGEWOOD AVE 1050 TRAFFIC STOP
150707462895 7-7 19:32 5600 SEABOARD AVE 2288 DOMESTIC DISPUTE WITH/ASSAULT
150707462888 7-7 19:32 6000 MONCRIEF RD 63 DISPUTE
150707462897 7-7 19:31 600 S MC DUFF AVE 1050 TRAFFIC STOP
150707462893 7-7 19:30 800 DUNN AVE 61 FIGHT
150707462894 7-7 19:30 W BEAVER ST AND SUPERIOR ST 1050 TRAFFIC STOP
150707462891 7-7 19:29 3000 E CAROLINE CREST DR 1066 CANCEL
150707462851 7-7 19:29 10300 SOUTHSIDE BLVD 3 HIT AND RUN CRASH
150707462890 7-7 19:29 800 DUNN AVE 55 HOLDING ONE
150707462886 7-7 19:27 900 POST ST 27 MENTALLY ILL PERSON
150707462882 7-7 19:27 500 STOCKTON ST 0 63 ARMED DISPUTE
150707462877 7-7 19:26 5600 CAGLE RD 37 UNVERIFIED 911 CALL
150707462777 7-7 19:26 3100 S ST JOHNS BLUFF RD 63 DISPUTE
150707462885 7-7 19:25 W EDGEWOOD AVE AND MONCRIEF RD 63 DISPUTE
150707462887 7-7 19:25 POST/MCDUFF 1050 TRAFFIC STOP
150707462871 7-7 19:24 5300 N BUGGY WHIP DR 32 BURGLAR ALARM - AUDIBLE
150707462883 7-7 19:24 4600 MONCRIEF RD 63 DISPUTE
150707462840 7-7 19:23 3900 LORETTO RD 32 BURGLAR ALARM - AUDIBLE
150707462874 7-7 19:23 TALBOT AVE AND RICHMOND ST 13 SUSPICIOUS PERSON
150707462879 7-7 19:23 5600 CAGLE RD 63 DISPUTE
150707462868 7-7 19:22 N I95 EXPWY AND BOWDEN RD 3 HIT AND RUN CRASH
150707462861 7-7 19:22 2100 S ST JOHNS BLUFF RD 0 56 ARMED JUVENILE
150707462881 7-7 19:22 AVENUE B AND W 45TH ST 62 PERSON CUT
150707462878 7-7 19:20 LAKE FERN DR AND LONDON LAKE DR 1050 TRAFFIC STOP
150707462858 7-7 19:18 SAN JOSE BLVD AND CLAIRE LN 4 AUTO CRASH
150707462852 7-7 19:17 1400 N MARKET ST 13 SUSPICIOUS PERSON
150707462872 7-7 19:16 DUNN AVE AND HARTS RD 13 SUSPICIOUS PERSON
150707462838 7-7 19:16 9800 ATLANTIC BLVD 9 THEFT
150707462862 7-7 19:15 3500 KINGSTON ST 63 DISPUTE
150707462859 7-7 19:14 6100 RICHARD ST 32 BURGLAR ALARM - AUDIBLE
150707462822 7-7 19:14 COLLINS RD AND RAMPART RD 4 AUTO CRASH
150707462856 7-7 19:13 9800 HUTCHINSON PARK DR 9J THEFT JUST OCCURRED
150707462863 7-7 19:11 2000 DEAN RD 60 SUICIDE OR ATTEMPT
150707462857 7-7 19:09 1400 W 18TH ST 13 SUSPICIOUS PERSON
150707462854 7-7 19:08 2500 PHILLIPS HWY 32 BURGLAR ALARM - AUDIBLE
150707462855 7-7 19:08 ROSSEL/MCDUFF 1050 TRAFFIC STOP
150707462853 7-7 19:08 8200 SOUTHSIDE BLVD 63 DISPUTE
150707462849 7-7 19:07 700 ACOSTA ST 0 63 ARMED DISPUTE
150707462850 7-7 19:06 14300 S WOODFIELD CIR 21R BURGLARY RESIDENCE
150707462695 7-7 19:04 8000 SHADWELL CT 63 DISPUTE
150707462818 7-7 19:04 6100 MAGGIES CIR 56 JUVENILE COMPLAINT
150707462845 7-7 19:03 100 PECAN ST 80 PROSTITUTION (ONLY)
150707462839 7-7 19:02 10900 BEACH BLVD 63 DISPUTE
150707462807 7-7 19:01 2500 W BEAVER ST 63 DISPUTE
150707462837 7-7 19:01 5200 SHAD RD 1066 CANCEL
150707462749 7-7 19:01 EDISON AVE AND S MC DUFF AVE 4 AUTO CRASH
150707462836 7-7 19:00 400 JACKSON RD 63 DISPUTE
150707462796 7-7 18:58 1500 S MC DUFF AVE 95ID IDENTITY THEFT
150707462819 7-7 18:57 1400 VAN BUREN ST 4 AUTO CRASH
150707462834 7-7 18:57 ATL/MCDUFF 1050 TRAFFIC STOP
150707462824 7-7 18:57 1600 W UNIVERSITY BLVD 2288 DOMESTIC DISPUTE WITH/ASSAULT
150707462816 7-7 18:57 3500 S ST JOHNS BLUFF RD 22 DOMESTIC DISTURBANCE
150707462831 7-7 18:57 11900 BEACH BLVD 1066 CANCEL
150707462774 7-7 18:56 10700 JAVA DR 63 DISPUTE
150707462811 7-7 18:56 4600 RIVER CITY DR 70 COUNTERFEIT
150707462829 7-7 18:56 11600 BEACH BLVD 2 DRUNK PERSON
150707462788 7-7 18:55 1500 LANDAU RD 22 DOMESTIC DISTURBANCE
150707462761 7-7 18:55 7300 EL BARCO RD 63 DISPUTE
150707462808 7-7 18:54 7800 WILDWOOD RD 32 BURGLAR ALARM - AUDIBLE
150707462744 7-7 18:54 3000 E KLINE RD 63 DISPUTE
150707462794 7-7 18:53 MARGARET ST AND PARK ST 13 SUSPICIOUS PERSON
150707462825 7-7 18:53 12600 BEACH BLVD 37 UNVERIFIED 911 CALL
150707462823 7-7 18:53 N I295 EXPWY AND COMMONWEALTH AVE 96 ASSIST MOTORIST
150707462827 7-7 18:53 4800 ROOSEVELT BLVD 1050 TRAFFIC STOP
150707462733 7-7 18:52 9100 ATLANTIC BLVD 63 DISPUTE
150707462758 7-7 18:52 4000 DELLWOOD AVE 63 DISPUTE
150707462812 7-7 18:48 4500 EDGEWOOD DR 37 UNVERIFIED 911 CALL
150707462817 7-7 18:48 12600 MANDARIN RD 32 BURGLAR ALARM - AUDIBLE
150707462802 7-7 18:47 8100 LADOGA AVE 63 DISPUTE
150707462708 7-7 18:47 3500 UNIVERSITY BLVD 63 DISPUTE
150707462767 7-7 18:46 3700 VIA DE LA REINA 14 VANDALISM
150707462806 7-7 18:46 5100 SHENANDOAH AVE 2288 DOMESTIC DISPUTE WITH/ASSAULT
150707462799 7-7 18:45 N I295 EXPWY AND WILSON BLVD 12 RECKLESS DRIVER
150707462814 7-7 18:44 600 MCDUFF 1050 TRAFFIC STOP
150707462809 7-7 18:42 8800 CHAMBORE DR 63 DISPUTE
150707462714 7-7 18:40 2300 PEACH DR 3 HIT AND RUN CRASH
150707462798 7-7 18:39 EATON AVE AND LAMSON ST 13 SUSPICIOUS PERSON
150707462655 7-7 18:39 500 STOCKTON ST 63 DISPUTE
150707462753 7-7 18:37 2100 LEGER CIR 63 DISPUTE
150707462769 7-7 18:37 6300 AUTUMN BERRY CIR 13 SUSPICIOUS PERSON
150707462804 7-7 18:37 SHEER/POST 1050 TRAFFIC STOP
150707462800 7-7 18:36 800 PLUM ST 1050 TRAFFIC STOP
150707462797 7-7 18:34 W BEAVER ST AND S ELLIS RD 1050 TRAFFIC STOP
150707462790 7-7 18:34 2100 2ND ST 32 BURGLAR ALARM - AUDIBLE
150707462756 7-7 18:34 N I295 EXPWY AND BAYMEADOWS RD 12 RECKLESS DRIVER
150707462787 7-7 18:34 S I295 EXPWY AND MONUMENT RD 4 AUTO CRASH
150707462720 7-7 18:34 800 STOCKTON ST 88 ASSAULT
150707462747 7-7 18:32 9400 WAYNESBORO AVE 19 ANIMAL INVESTIGATION
150707462746 7-7 18:32 8500 ARGYLE FOREST BLVD 63 DISPUTE
150707462722 7-7 18:31 10700 PLUM HOLLOW DR 63 DISPUTE
150707462789 7-7 18:31 2900 BRIGHT EAGLE DR 22 DOMESTIC DISTURBANCE
150707462760 7-7 18:31 8300 N CENTURY POINT DR 13 SUSPICIOUS PERSON
150707462681 7-7 18:31 8000 W NARANJA DR 14R VANDALISM RESIDENCE
150707462793 7-7 18:30 6800 N MORGANA RD 76 ASSIST OTHER AGENCY
150707462792 7-7 18:30 SHEER/POST 1050 TRAFFIC STOP
150707462775 7-7 18:29 100 N BUCKMAN BRG 4 AUTO CRASH
150707462773 7-7 18:29 800 PRUDENTIAL DR 4 AUTO CRASH
150707462765 7-7 18:27 7700 SOUTHSIDE BLVD 2288 DOMESTIC DISPUTE WITH/ASSAULT
150707462785 7-7 18:27 N I295 EXPWY AND COMMONWEALTH AVE 13 SUSPICIOUS PERSON
150707462783 7-7 18:27 S I295 EXPWY AND COMMONWEALTH AVE 13 SUSPICIOUS PERSON
150707462778 7-7 18:26 N I295 EXPWY AND COMMONWEALTH AVE 13 SUSPICIOUS PERSON
150707462763 7-7 18:26 W BEAVER ST AND S ELLIS RD 96 ASSIST MOTORIST
150707462712 7-7 18:26 10400 SANDLER RD 9 THEFT
150707462780 7-7 18:23 200 W UNION ST 63 DISPUTE
150707462770 7-7 18:23 2400 DUNN AVE 32 BURGLAR ALARM - AUDIBLE
150707462619 7-7 18:22 1000 S US 301 HWY 63 DISPUTE
150707462776 7-7 18:22 RAYFORD/MCDUFF 1050 TRAFFIC STOP
150707462766 7-7 18:22 400 PALMETTO ST 63 DISPUTE
150707462772 7-7 18:21 100 W 9TH ST 13 SUSPICIOUS PERSON
150707462768 7-7 18:21 S I95 EXPWY AND PECAN PARK RD 4 53 TRAFFIC CRASH PERSON INJURED
150707462716 7-7 18:18 6100 COLLINS RD 63 DISPUTE
150707462739 7-7 18:17 5900 RAMONA BLVD 63 DISPUTE
150707462728 7-7 18:16 10200 MONACO DR 1066 CANCEL
150707462703 7-7 18:15 ATLANTIC BLVD AND GLYNLEA RD 63 DISPUTE
150707462755 7-7 18:14 SOUTHSIDE BLVD AND N GATE PKWY 4 AUTO CRASH
150707462707 7-7 18:13 300 W 18TH ST 19 ANIMAL INVESTIGATION
150707462752 7-7 18:13 1100 E 15TH ST 63 DISPUTE
150707462601 7-7 18:09 9500 S PRINCETON SQUARE BLVD 49 REPORT TO HOSPITAL
150707462750 7-7 18:08 6700 GREENLAND INDUSTRIAL BLVD 32 BURGLAR ALARM - AUDIBLE
150707462612 7-7 18:07 6400 LACEY CT 10 AUTO THEFT
150707462741 7-7 18:05 13400 ATLANTIC BLVD 19 ANIMAL INVESTIGATION
150707462742 7-7 18:04 95SB/PAST BAYMEADOWS 1 IMPAIRED/RECKLESS DRIVER
150707462730 7-7 18:03 7700 NORMANDY BLVD 32 BURGLAR ALARM - AUDIBLE
150707462738 7-7 18:03 600 CASSAT AVE 1050 TRAFFIC STOP
150707462729 7-7 18:02 1500 E 15TH ST 88P ASSAULT IN PROGRESS
150707462734 7-7 18:02 4700 TOWN CROSSING DR 32X SILENT ALARM (ROBBERY PANIC OR AWARE)
150707462713 7-7 18:01 4400 S LINCREST DR 32 BURGLAR ALARM - AUDIBLE
150707462732 7-7 18:00 7100 POWERS AVE 50 FOUND/ABANDONED PROPERTY
150707462731 7-7 18:00 ST JOHNS AVE AND ROOSEVELT BLVD 1050 TRAFFIC STOP
150707462724 7-7 18:00 2000 INDIAN SPRINGS DR 22 DOMESTIC DISTURBANCE
150707462718 7-7 17:59 1700 LAKE SHORE BLVD 32 BURGLAR ALARM - AUDIBLE
150707462726 7-7 17:59 BAY/JEFFERSON 1050 TRAFFIC STOP
150707462689 7-7 17:57 MARTIN LUTHER KING JR PKWY AND PHOENIX AVE 4 AUTO CRASH
150707462667 7-7 17:57 3900 ATLANTIC BLVD 21CT BURGLARY CONVEYANCE TELESERVE
150707462706 7-7 17:56 9500 W SPOTTSWOOD RD 19 ANIMAL INVESTIGATION
150707462721 7-7 17:55 1ST/APR 1050 TRAFFIC STOP
150707462648 7-7 17:55 300 MARTIN LUTHER KING JR DR 32 BURGLAR ALARM - AUDIBLE
150707462624 7-7 17:54 9300 103RD ST 76 ASSIST OTHER AGENCY
150707462691 7-7 17:53 3600 PARK ST 4 AUTO CRASH
150707462678 7-7 17:53 1100 SCOTTEN RD 95ID IDENTITY THEFT
150707462665 7-7 17:52 S US 301 HWY AND NORMEXIT S 301 RP 4 AUTO CRASH
150707462694 7-7 17:52 3400 S PICKWICK DR 32 BURGLAR ALARM - AUDIBLE
150707462699 7-7 17:51 S I95 EXPWY AND BOWDEN RD 4 AUTO CRASH
150707462687 7-7 17:51 5200 NORMANDY BLVD 1066 CANCEL
150707462710 7-7 17:50 N ARLINGTON RD AND LILLIAN RD 1050 TRAFFIC STOP
150707462709 7-7 17:50 ST JOHNS/ROOSEVLT 1050 TRAFFIC STOP
150707462692 7-7 17:50 9700 ATLANTIC BLVD 4 AUTO CRASH
150707462690 7-7 17:49 6800 CLEVELAND RD 63 DISPUTE
150707462675 7-7 17:49 7900 MERRILL RD 63 DISPUTE
150707462631 7-7 17:47 6000 CHESTER CIR 63 DISPUTE
150707462704 7-7 17:46 200 E 8TH ST 14BJ VANDALISM BUSINESS JUST OCCURRED
150707462669 7-7 17:46 S I95 EXPWY AND W UNIVERSITY BLVD 4 53 TRAFFIC CRASH PERSON INJURED
150707462698 7-7 17:45 2500 JAMMES RD 32X SILENT ALARM (ROBBERY PANIC OR AWARE)
150707462688 7-7 17:44 9500 ARLINGTON EXPWY 1066 CANCEL
150707462668 7-7 17:43 8000 LEM TURNER RD 63 DISPUTE
150707462693 7-7 17:42 POST/MCDUFF 13 SUSPICIOUS PERSON
150707462674 7-7 17:40 2700 MONUMENT RD 4 AUTO CRASH
150707462635 7-7 17:40 ALTA DR AND FAYE RD 63 DISPUTE
150707462686 7-7 17:39 2000 UNIVERSITY 12 RECKLESS DRIVER
150707462673 7-7 17:39 8100 FRESCA ST 13 SUSPICIOUS PERSON
150707462685 7-7 17:39 1000 N ARLINGTON RD 1050 TRAFFIC STOP
150707462677 7-7 17:38 4500 TIMUQUANA RD 63 DISPUTE
150707462652 7-7 17:38 5200 W BEAVER ST 32 BURGLAR ALARM - AUDIBLE
150707462683 7-7 17:38 11900 ATLANTIC BLVD 27 MENTALLY ILL PERSON
150707462680 7-7 17:38 7700 NORMANDY BLVD 63 DISPUTE
150707462676 7-7 17:36 S I295 EXPWY AND OLD KINGS RD 12 RECKLESS DRIVER
150707462650 7-7 17:35 800 BERT RD 64 NOISE COMPLAINT
150707462661 7-7 17:35 7900 PASCHAL ST 68T CON GAME/FLIM FLAM TELESERVE
150707462597 7-7 17:33 800 S LANE AVE 5582 HOLDING ONE FOR SHOPLIFTING
150707462659 7-7 17:33 S I95 EXPWY AND DUNN AVE 4 AUTO CRASH
150707462672 7-7 17:33 1600 SOUTHSIDE 1050 TRAFFIC STOP
150707462625 7-7 17:32 W BEAVER ST AND WESTBROOK RD 4 AUTO CRASH
150707462663 7-7 17:31 N MAIN ST AND W 44TH ST 91 TRAFFIC LIGHT/RR CROSSING MALFUNCTION
150707462664 7-7 17:31 S I95 EXPWY AND PECAN PARK RD 4 AUTO CRASH
150707462621 7-7 17:30 KING ST AND POST ST 4 AUTO CRASH
150707462593 7-7 17:30 10500 DEERWOOD PARK BLVD 4 AUTO CRASH
150707462656 7-7 17:30 5500 S SANTA MONICA BLVD 21R BURGLARY RESIDENCE
150707462583 7-7 17:29 14500 FENNEY CT 32 BURGLAR ALARM - AUDIBLE
150707462662 7-7 17:29 100 N FULLER WARREN BRG 16 ROAD OBSTRUCTION
150707462660 7-7 17:27 ROOSEVELT BLVD AND S MC DUFF AVE 4 AUTO CRASH
150707462653 7-7 17:26 4300 CONFEDERATE POINT RD 86T LOST PROPERTY (TELESERVE)
150707462646 7-7 17:25 7800 NORMANDY BLVD 13 SUSPICIOUS PERSON
150707462574 7-7 17:25 E 8TH ST AND N LIBERTY ST 0 88 ARMED ASSAULT
150707462629 7-7 17:24 12000 WATCH TOWER DR 21R BURGLARY RESIDENCE
150707462636 7-7 17:24 6900 S ORIELY DR 13 SUSPICIOUS PERSON
150707462447 7-7 17:23 3900 OLD SUNBEAM RD 21CT BURGLARY CONVEYANCE TELESERVE
150707462609 7-7 17:22 800 PRUDENTIAL DR 38 TRAFFIC ASSIGNMENT
150707462638 7-7 17:21 E 5TH ST AND WALNUT ST 73 DRUG INVESTIGATION
150707462637 7-7 17:21 N I295 EXPWY AND WILSON BLVD 16 ROAD OBSTRUCTION
150707462580 7-7 17:21 1300 N BROAD ST 37 UNVERIFIED 911 CALL
150707462581 7-7 17:20 9900 HOOD RD 4 AUTO CRASH
150707462642 7-7 17:20 3300 THOMAS ST 18 PERSON SHOT
150707462639 7-7 17:19 S I295 EXPWY AND DUNN AVE 91 TRAFFIC LIGHT/RR CROSSING MALFUNCTION
150707462641 7-7 17:18 5900 RAMONA BLVD 2288 DOMESTIC DISPUTE WITH/ASSAULT
150707462620 7-7 17:18 10600 LEM TURNER RD 63 DISPUTE
150707462640 7-7 17:17 J TURNER BUTLER BLVD AND S KERNAN BLVD 4 53 TRAFFIC CRASH PERSON INJURED
150707462634 7-7 17:16 S I95 EXPWY AND AIRPORT RD 4 AUTO CRASH
150707462630 7-7 17:16 S I95 EXPWY AND AIRPORTEXIT S I95 RP 4 AUTO CRASH
150707462626 7-7 17:15 7500 ARLINGTON EXPWY 6388 DISPUTE WITH ASSAULT
150707462633 7-7 17:15 1300 N BROAD ST 76 ASSIST OTHER AGENCY
150707462628 7-7 17:15 3900 ATHORE DR 56 JUVENILE COMPLAINT
150707462627 7-7 17:15 11300 MC NICHOLS CT 1066 CANCEL
150707462545 7-7 17:14 11800 ATLANTIC BLVD 2 DRUNK PERSON
150707462565 7-7 17:14 10800 JAVA DR 63 DISPUTE
150707462570 7-7 17:13 BAYMEADOWS RD AND SOUTHSIDE BLVD 63 DISPUTE
150707462560 7-7 17:13 MONUMENT RD AND N ST JOHNS BLUFF RD 4 AUTO CRASH
150707462622 7-7 17:13 N JEFFERSON ST AND W FORSYTH ST 76 ASSIST OTHER AGENCY
150707462571 7-7 17:13 BEACH BLVD AND FOREST BLVD 3 HIT AND RUN CRASH
150707462563 7-7 17:13 9800 HUTCHINSON PARK DR 5582 HOLDING ONE FOR SHOPLIFTING
150707462616 7-7 17:12 6700 103RD ST 56 JUVENILE COMPLAINT
150707462542 7-7 17:12 11200 HARTS RD 63 DISPUTE
150707462606 7-7 17:11 S I95 EXPWY AND S I295 EXPWY 4 AUTO CRASH
150707462613 7-7 17:11 12700 BARTRAM PARK BLVD 79T OBSCENE OR THREATENING COMM TELESERVE
150707462521 7-7 17:10 7400 BLANDING BLVD 63 DISPUTE
150707462603 7-7 17:10 6800 PICKETTVILLE RD 1066 CANCEL
150707462614 7-7 17:10 W BEAVER ST AND WESTBROOK RD 4 AUTO CRASH
150707462600 7-7 17:09 E 21ST ST AND N LIBERTY ST 4 AUTO CRASH
150707462584 7-7 17:09 400 E BAY ST 96 ASSIST MOTORIST
150707462611 7-7 17:08 HARE AVE AND N ARLINGTON RD 1050 TRAFFIC STOP
150707462610 7-7 17:08 W BEAVER ST AND WESTBROOK RD 4 AUTO CRASH
150707462604 7-7 17:08 7700 KING ROYSE RD 60 SUICIDE OR ATTEMPT
150707462607 7-7 17:08 3400 SHREWSBURY DR 60 SUICIDE OR ATTEMPT
150707462590 7-7 17:08 3800 MARLAND ST 19 ANIMAL INVESTIGATION
150707462605 7-7 17:07 1900 LARGO PL 32 BURGLAR ALARM - AUDIBLE
150707462534 7-7 17:07 2400 MAYPORT RD 2288 DOMESTIC DISPUTE WITH/ASSAULT
150707462502 7-7 17:06 5200 PLYMOUTH ST 32 BURGLAR ALARM - AUDIBLE
150707462602 7-7 17:06 J TURNER BUTLER BLVD AND S KERNAN BLVD 96 ASSIST MOTORIST
150707462558 7-7 17:06 N I295 EXPWY AND MONUMENT RD 96 ASSIST MOTORIST
150707462599 7-7 17:06 2300 JAYSON AVE 76 ASSIST OTHER AGENCY
150707462501 7-7 17:05 1900 ELLA ST 14 VANDALISM
150707462561 7-7 17:05 S I295 EXPWY AND BLANDING BLVD 13 SUSPICIOUS PERSON
150707462594 7-7 17:04 UNIVERSITY/BARNES 1050 TRAFFIC STOP
150707462592 7-7 17:04 2300 E IRONSTONE DR 1066 CANCEL
150707462414 7-7 17:03 400 WINTER ST 21R BURGLARY RESIDENCE
150707462589 7-7 17:03 COLLINS RD AND RAMPART RD 4 53 TRAFFIC CRASH PERSON INJURED
150707462591 7-7 17:02 JESSIE ST AND A PHILIP RANDOLPH BLVD 1050 TRAFFIC STOP
150707462575 7-7 17:02 WILCOX ST AND W 5TH ST 4 63 CRASH INVOLVING DISPUTE
150707462541 7-7 17:02 11000 HARTS RD 73 DRUG INVESTIGATION
150707462519 7-7 17:00 E 4TH ST AND N MARKET ST 9T THEFT (TELESERVE)
150707462577 7-7 17:00 11700 PALM LAKE DR 63 DISPUTE
150707462585 7-7 17:00 14400 N AQUA VISTA RD 32X SILENT ALARM (ROBBERY PANIC OR AWARE)
150707462489 7-7 16:59 N I295 EXPWY AND ROOSEVELT BLVD 12 RECKLESS DRIVER
150707462572 7-7 16:58 J TURNER BUTLER BLVD AND S KERNAN BLVD 96 ASSIST MOTORIST
150707462576 7-7 16:57 3500 KINGSTON ST 32X SILENT ALARM (ROBBERY PANIC OR AWARE)
150707462573 7-7 16:56 5500 COMMERCE ST 23CJ ROBBERY CARJACKING JUST OCCURRED
150707462562 7-7 16:56 N I295 EXPWY AND BLANDING BLVD 4 AUTO CRASH
150707462538 7-7 16:55 N I295 EXPWY AND ROOSEVELT BLVD 3 HIT AND RUN CRASH
150707462569 7-7 16:55 N I295 EXPWY AND GATE PKWY 4 AUTO CRASH
150707462566 7-7 16:53 14400 BEACH BLVD 4 AUTO CRASH
150707462397 7-7 16:51 5200 COLLINS RD 21R BURGLARY RESIDENCE
150707462550 7-7 16:51 9800 CREEKFRONT RD 63 DISPUTE
150707462490 7-7 16:51 3900 AUTUMN LN 63 DISPUTE
150707462547 7-7 16:50 2800 LIZ LN 4 AUTO CRASH
150707462543 7-7 16:49 7500 ARLINGTON EXPWY 22 DOMESTIC DISTURBANCE
150707462555 7-7 16:48 4200 BELFORT RD 4 AUTO CRASH
150707462548 7-7 16:47 1600 HAMMOCK RD 21R BURGLARY RESIDENCE
150707462537 7-7 16:47 8700 SOUTHSIDE BLVD 1066 CANCEL
150707462522 7-7 16:47 800 W POYDRAS LN 32 BURGLAR ALARM - AUDIBLE
150707462499 7-7 16:46 5100 W UNIVERSITY BLVD 2 DRUNK PERSON
150707462549 7-7 16:46 2100 MAYPORT RD 76 ASSIST OTHER AGENCY
150707462472 7-7 16:45 ST JOHNS AVE AND ROOSEVELT BLVD 0 63 ARMED DISPUTE
150707462508 7-7 16:45 3700 STARRATT RD 9T THEFT (TELESERVE)
150707462529 7-7 16:44 4200 PHILLIPS HWY 5582 HOLDING ONE FOR SHOPLIFTING
150707462466 7-7 16:42 7800 NEW KINGS RD 27 MENTALLY ILL PERSON
150707462468 7-7 16:42 100 S BUCKMAN BRG 16 ROAD OBSTRUCTION
150707462482 7-7 16:42 4500 BEACH BLVD 76 ASSIST OTHER AGENCY
150707462484 7-7 16:42 103RD ST AND FIRESTONE RD 4 AUTO CRASH
150707462530 7-7 16:41 11100 RUSTIC PINES CIR 32 BURGLAR ALARM - AUDIBLE
150707462474 7-7 16:41 YOUNGERMAN CIR AND BLANDING BLVD 38 TRAFFIC ASSIGNMENT
150707462477 7-7 16:40 4500 E JADE DR 0 88 ARMED ASSAULT
150707462535 7-7 16:39 N MAIN ST AND S I295 EXPWY 96 ASSIST MOTORIST
150707462520 7-7 16:38 6700 RYANCE RD 32 BURGLAR ALARM - AUDIBLE
150707462531 7-7 16:38 3000 DUNN AVE 63 DISPUTE
150707462451 7-7 16:38 2100 CYPRESS LANDING DR 63 DISPUTE
150707462533 7-7 16:38 ARLINGTON EXPWY AND ATLANTIC BLVD 1050 TRAFFIC STOP
150707462515 7-7 16:38 S I95 EXPWY AND AIRPORTEXIT S I95 RP 4 AUTO CRASH
150707462518 7-7 16:37 4300 MONCRIEF RD 4 AUTO CRASH
150707462524 7-7 16:37 3000 MONUMENT RD 4 AUTO CRASH
150707462528 7-7 16:36 UNIV/ARLINGTON XWY 1050 TRAFFIC STOP
150707462456 7-7 16:36 6700 103RD ST 9 THEFT
150707462514 7-7 16:36 8200 DIX ELLIS TRL 2 63 DISPUTE INVOLVING ALCOHOL
150707462496 7-7 16:36 15500 W SHARK RD 4 AUTO CRASH
150707462525 7-7 16:35 3000 PHILLIPS HWY 80 PROSTITUTION (ONLY)
150707462523 7-7 16:35 WESTERN WAY/BAYMEADOWS RD 4 AUTO CRASH
150707462492 7-7 16:34 6500 S LEDBURY DR 13 SUSPICIOUS PERSON
150707462449 7-7 16:33 3500 DIVISION ST 22 DOMESTIC DISTURBANCE
150707462500 7-7 16:33 9500 CROSSHILL BLVD 27 MENTALLY ILL PERSON
150707462509 7-7 16:32 1300 E 3RD ST 63 DISPUTE
150707462483 7-7 16:32 3000 E PABLO BAY DR 63 DISPUTE
150707462475 7-7 16:32 2900 RAYFORD ST 63 DISPUTE
150707462491 7-7 16:32 3000 MONCRIEF RD 63 DISPUTE
150707462418 7-7 16:31 1000 ETHAN ALLEN ST 63 DISPUTE
150707462505 7-7 16:31 3800 BLANDING BLVD 23IJ ROBBERY INDIVIDUAL JUST OCCD
150707462511 7-7 16:31 2900 BELAIR RD 80 PROSTITUTION (ONLY)
150707462510 7-7 16:31 17TH/DAVIS 13 SUSPICIOUS PERSON
150707462507 7-7 16:30 KERNAN/BEACH 1050 TRAFFIC STOP
150707462495 7-7 16:29 12100 OLD ST AUGUSTINE RD 22 DOMESTIC DISTURBANCE
150707462506 7-7 16:29 MONUMENT/I295SB 1050 TRAFFIC STOP
150707462504 7-7 16:28 E I10 EXPWY AND S US 301 HWY 4 AUTO CRASH
150707462497 7-7 16:28 3500 W LENCZYK DR 13 SUSPICIOUS PERSON
150707462503 7-7 16:28 900 DUNN AVE 86 LOST PROPERTY
150707462420 7-7 16:27 9000 GALLOWAY DR 32 BURGLAR ALARM - AUDIBLE
150707462481 7-7 16:27 9800 OLD BAYMEADOWS RD 2288 DOMESTIC DISPUTE WITH/ASSAULT
150707462480 7-7 16:26 9800 CREEKFRONT RD 1066 CANCEL
150707462461 7-7 16:25 300 LINWOOD AVE 86T LOST PROPERTY (TELESERVE)
150707462444 7-7 16:25 500 E BAY ST 68T CON GAME/FLIM FLAM TELESERVE
150707462488 7-7 16:25 12100 CHASEBOROUGH WAY 32 BURGLAR ALARM - AUDIBLE
150707462478 7-7 16:23 2200 SHULL DR 1066 CANCEL
150707462479 7-7 16:22 500 DRUID HILL LN 0 63 ARMED DISPUTE
150707462476 7-7 16:21 700 N MAIN ST 10R AUTO THEFT RECOVERY
150707462473 7-7 16:19 LILLIAN RD AND BERT RD 1050 TRAFFIC STOP
150707462471 7-7 16:18 ROSSELLE ST AND S MC DUFF AVE 1050 TRAFFIC STOP
150707462462 7-7 16:17 11600 BEACH BLVD 88P ASSAULT IN PROGRESS
150707462438 7-7 16:17 6400 PINEWOOD HILLS DR 32 BURGLAR ALARM - AUDIBLE
150707462467 7-7 16:17 N ARLINGTON RD AND HARE AVE 1050 TRAFFIC STOP
150707462436 7-7 16:17 12300 DEWHURST CIR 32 BURGLAR ALARM - AUDIBLE
150707462435 7-7 16:17 11500 DRIFTWOOD CREEK DR 32 BURGLAR ALARM - AUDIBLE
150707462464 7-7 16:16 9700 SOUTHBROOK DR 9T THEFT (TELESERVE)
150707462460 7-7 16:16 300 W 11TH ST 22 DOMESTIC DISTURBANCE
150707462457 7-7 16:16 ST AUGUSTINE RD AND MORROW ST 12 RECKLESS DRIVER
150707462463 7-7 16:16 200 N HOGAN ST 76 ASSIST OTHER AGENCY
150707462453 7-7 16:15 S I95 EXPWY AND DUNN AVE 4 AUTO CRASH
150707462459 7-7 16:15 4400 ENGLEWOOD AVE 80 PROSTITUTION (ONLY)
150707462452 7-7 16:15 1500 W EDGEWOOD AVE 0 88J ARMED ASSAULT JUST OCCURRED
150707462442 7-7 16:14 8700 NEWTON RD 63 DISPUTE
150707462448 7-7 16:12 900 DUNN AVE 50 FOUND/ABANDONED PROPERTY
150707462402 7-7 16:12 1000 GOLFAIR BLVD 63 DISPUTE
150707462445 7-7 16:11 WESTERN WAY AND BAYMEADOWS RD 4 53 TRAFFIC CRASH PERSON INJURED
150707462378 7-7 16:10 3800 SAN CLERC RD 32 BURGLAR ALARM - AUDIBLE
150707462415 7-7 16:09 1800 SILVER ST 32 BURGLAR ALARM - AUDIBLE
150707462443 7-7 16:09 N I295 EXPWY AND BLANDING BLVD 4 AUTO CRASH
150707462441 7-7 16:08 2600 SRA1A HWY 3388 DISCHARGING FIREARM AT PERSON
150707462425 7-7 16:07 300 COTTAGE AVE 96 ASSIST MOTORIST
150707462429 7-7 16:06 700 OLD HICKORY RD 4 AUTO CRASH
150707462431 7-7 16:06 BLANDING BLVD AND CONFEDERATE POINT RD 10R AUTO THEFT RECOVERY
150707462434 7-7 16:05 5800 W UNIVERSITY BLVD 1066 CANCEL
150707462411 7-7 16:05 9500 PHILLIPS HWY 4 AUTO CRASH
150707462430 7-7 16:04 1800 SOUTHSIDE BLVD 63 DISPUTE
150707462426 7-7 16:03 CAHOON RD AND BAYMAR ST 4 AUTO CRASH
150707462427 7-7 16:03 SRA1A HWY AND WONDERWOOD DR 4 53 TRAFFIC CRASH PERSON INJURED
150707462424 7-7 16:02 5100 WABASH BLVD 63 DISPUTE
150707462405 7-7 16:02 11200 BEACH BLVD 63 DISPUTE
150707462417 7-7 16:01 500 E BAY ST 95IDT IDENTITY THEFT TELESERVE
150707462409 7-7 16:00 6300 DUNN AVE 32 BURGLAR ALARM - AUDIBLE
150707462400 7-7 15:59 13600 WOODLAND DR 13 SUSPICIOUS PERSON
150707462382 7-7 15:58 4100 ADIROLF RD 1066 CANCEL
150707462390 7-7 15:58 5000 SOUTEL DR 63 DISPUTE
150707462318 7-7 15:57 BROOM ST AND 1ST AVE 63 DISPUTE
150707462407 7-7 15:57 2200 W BEAVER ST 98 THROWING MISSILES
150707462403 7-7 15:56 1500 ROBINSON AVE 63 DISPUTE
150707462410 7-7 15:55 OS 1050 TRAFFIC STOP
150707462408 7-7 15:55 EMERSON ST AND PHILLIPS HWY 4 AUTO CRASH
150707462256 7-7 15:55 8600 ADAMS AVE 21R BURGLARY RESIDENCE
150707462391 7-7 15:55 5400 CLEVELAND RD 63 DISPUTE
150707462404 7-7 15:54 N ARLINGTON RD AND ARLINGTON XY SERVICE RD 1050 TRAFFIC STOP
150707462398 7-7 15:54 8100 POINT MEADOWS WAY 37 UNVERIFIED 911 CALL
150707462393 7-7 15:52 7500 ARLINGTON EXPWY 0 23I ARMED ROBBERY INDIVIDUAL
150707462396 7-7 15:52 2200 PERRY PL 80 PROSTITUTION (ONLY)
150707462395 7-7 15:51 1000 N ARLINGTON RD 12 RECKLESS DRIVER
150707462394 7-7 15:51 5000 ST WILLIAM MILLS 53 SOMEONE HURT
150707462388 7-7 15:51 GIRVIN RD AND MT PLEASANT RD 16 ROAD OBSTRUCTION
150707462377 7-7 15:50 N I295 EXPWY AND DUNN AVE 11 ABANDONED VEHICLE
150707462379 7-7 15:50 ATLANTIC BLVD AND HODGES BLVD 12 RECKLESS DRIVER
150707462384 7-7 15:49 S I95 EXPWY 4 AUTO CRASH
150707462381 7-7 15:48 S I95 EXPWY AND AIRPORT RD 4 AUTO CRASH
150707462239 7-7 15:47 4700 RIVERINE DR 96 ASSIST MOTORIST
150707462347 7-7 15:46 S I95 EXPWY AND EMERSON ST 13 SUSPICIOUS PERSON
150707462376 7-7 15:45 9100 PHILLIPS HWY 38 TRAFFIC ASSIGNMENT
150707462370 7-7 15:45 200 W UNION ST 63 DISPUTE
150707462371 7-7 15:45 S I95 EXPWY AND DUNN AVE 4 53 TRAFFIC CRASH PERSON INJURED
150707462375 7-7 15:44 3600 S ST JOHNS BLUFF RD 76 ASSIST OTHER AGENCY
150707462345 7-7 15:44 5800 LA MOYA AVE 4 AUTO CRASH
150707462237 7-7 15:44 9300 103RD ST 63 DISPUTE
150707462320 7-7 15:43 8400 CHESWICK OAK AVE 13 SUSPICIOUS PERSON
150707462372 7-7 15:43 8TH/HAINES 96 ASSIST MOTORIST
150707462308 7-7 15:42 2000 FIGARO LN 21R BURGLARY RESIDENCE
150707462369 7-7 15:42 ROOSEVELT/I10 96 ASSIST MOTORIST
150707462366 7-7 15:41 N MAIN ST AND NEW BERLIN RD 76 ASSIST OTHER AGENCY
150707462272 7-7 15:41 8600 ETHANS GLEN TER 14R VANDALISM RESIDENCE
150707462324 7-7 15:40 5300 MONCRIEF RD 14CJ VANDALISM CONVEYANCE JUST OCCURRED
150707462364 7-7 15:40 3500 ST AUGUSTINE RD 80 PROSTITUTION (ONLY)
150707462360 7-7 15:39 KING ST AND W BEAVER ST 3 HIT AND RUN CRASH
150707462332 7-7 15:39 4100 W ORIELY DR 63 DISPUTE
150707462359 7-7 15:39 MAIN/BAY 1050 TRAFFIC STOP
150707462349 7-7 15:39 14500 OLD ST AUGUSTINE RD 3 HIT AND RUN CRASH
150707462356 7-7 15:39 8700 DANDY AVE 63 DISPUTE
150707462285 7-7 15:38 6300 YOUNGERMAN CIR 9 THEFT
150707462281 7-7 15:37 S I295 EXPWY AND BLANDING BLVD 96 ASSIST MOTORIST
150707462254 7-7 15:37 3300 STILLMAN ST 63 DISPUTE
150707462355 7-7 15:36 6800 LILLIAN RD 12 RECKLESS DRIVER
150707462306 7-7 15:36 1900 W 13TH ST 63 DISPUTE
150707462315 7-7 15:35 9500 CROSSHILL BLVD 4 AUTO CRASH
150707462352 7-7 15:35 ARLINGTON/JASPER 1050 TRAFFIC STOP
150707462348 7-7 15:35 11500 WHISPERINGBROOK LN 32 BURGLAR ALARM - AUDIBLE
150707462350 7-7 15:35 1600 S UNIVERSITY BLVD 16 ROAD OBSTRUCTION
150707462201 7-7 15:34 6100 RIVIERA MANOR DR 21C BURGLARY CONVEYANCE
150707462292 7-7 15:33 5800 105TH ST 63 DISPUTE
150707462274 7-7 15:33 2000 HYDE PARK RD 3388 DISCHARGING FIREARM AT PERSON
150707462344 7-7 15:33 W 45TH ST AND MONCRIEF RD 91 TRAFFIC LIGHT/RR CROSSING MALFUNCTION
150707462342 7-7 15:32 8100 BLANDING BLVD 63 DISPUTE
150707462304 7-7 15:31 8400 SOUTHSIDE BLVD 1066 CANCEL
150707462290 7-7 15:29 600 E ADAMS ST 63 DISPUTE
150707462339 7-7 15:29 ST CLAIR / COMMONWEALTH 16 ROAD OBSTRUCTION
150707462331 7-7 15:29 4900 BELFORT RD 37 UNVERIFIED 911 CALL
150707462337 7-7 15:28 4200 HUDRALL RD 80 PROSTITUTION (ONLY)
150707462323 7-7 15:28 1400 UNIVERSITY BLVD 9 THEFT
150707462299 7-7 15:27 1000 UNIVERSITY BLVD 23I ROBBERY INDIVIDUAL
150707462319 7-7 15:27 BEACH BLVD AND CORTEZ RD 13 SUSPICIOUS PERSON
150707462322 7-7 15:26 2800 UNIVERSITY BLVD 37 UNVERIFIED 911 CALL
150707462216 7-7 15:26 3600 W BOWDEN CIR 68T CON GAME/FLIM FLAM TELESERVE
150707462297 7-7 15:26 500 E BAY ST 8T MISSING PERSON (TELESERVE)
150707462255 7-7 15:25 5700 OVELLA RD 63 DISPUTE
150707462329 7-7 15:25 6900 LILLIAN RD 1050 TRAFFIC STOP
150707462326 7-7 15:25 NEW BERLIN RD AND DUNN CREEK RD 4 53 TRAFFIC CRASH PERSON INJURED
150707462317 7-7 15:24 S I95 EXPWY AND OLD ST AUGUSTINE RD 12 RECKLESS DRIVER
150707462311 7-7 15:21 3900 OLDFIELD CROSSING DR 76 ASSIST OTHER AGENCY
150707462307 7-7 15:21 2300 W BENTWATER DR 32 BURGLAR ALARM - AUDIBLE
150707462252 7-7 15:20 1600 W 26TH ST 32 BURGLAR ALARM - AUDIBLE
150707462196 7-7 15:20 2300 LEON RD 63 DISPUTE
150707462303 7-7 15:20 WHITE AVE AND SAN DIEGO RD 16 ROAD OBSTRUCTION
150707462267 7-7 15:20 4600 PEBBLE BROOK DR 14BT VANDALISM BUSINESS TELE-SERVE
150707462261 7-7 15:19 3500 W UNIVERSITY BLVD 63 DISPUTE
150707462295 7-7 15:15 3300 DILLON ST 8 27 MISSING MENTALLY ILL
150707462230 7-7 15:15 ST AUGUSTINE RD AND POWERS AVE 80 PROSTITUTION (ONLY)
150707462289 7-7 15:15 200 CENTURY 21 DR 63 DISPUTE
150707462294 7-7 15:13 S SADDLE HORN DR AND E HORSE TRACK DR 1050 TRAFFIC STOP
150707462286 7-7 15:12 1300 ST CLAIR ST 9T THEFT (TELESERVE)
150707462283 7-7 15:11 1000 OSCEOLA ST 76 ASSIST OTHER AGENCY
150707462251 7-7 15:10 10900 STARWOOD DR 32 BURGLAR ALARM - AUDIBLE
150707462284 7-7 15:10 2200 MITCHELL AVE 80 PROSTITUTION (ONLY)
150707462282 7-7 15:09 W I10 EXPWY 76 ASSIST OTHER AGENCY
150707462278 7-7 15:08 5500 ROOSEVELT BLVD 9P THEFT IN PROGRESS
150707462259 7-7 15:08 12800 SWAMP OWL LN 3 HIT AND RUN CRASH
150707462268 7-7 15:05 6800 N SOUTHPOINT DR 4 AUTO CRASH
150707462180 7-7 15:05 4900 TAN ST 9T THEFT (TELESERVE)
150707462264 7-7 15:05 700 S CHAFFEE RD 4 AUTO CRASH
150707462191 7-7 15:04 5500 ST AUGUSTINE RD 63 DISPUTE
150707462269 7-7 15:03 3500 COMMONWEALTH AVE 63 DISPUTE
150707462206 7-7 15:03 1300 HUBBARD ST 63 DISPUTE
150707462266 7-7 15:01 PHILLIPS/UNIVERSITY 1050 TRAFFIC STOP
150707462260 7-7 15:01 N ARLINGTON RD AND ARLINGTON EXPWY 4 63 CRASH INVOLVING DISPUTE
150707462265 7-7 15:00 10200 SAN JOSE BLVD 4 AUTO CRASH
150707462263 7-7 15:00 N MYRTLE AVE AND MONCRIEF RD 16 ROAD OBSTRUCTION
150707462209 7-7 14:56 200 MONUMENT RD 63 DISPUTE
150707462246 7-7 14:55 4200 PHILLIPS HWY 5582 HOLDING ONE FOR SHOPLIFTING
150707462199 7-7 14:54 11000 E WOODELM DR 21R BURGLARY RESIDENCE
150707462253 7-7 14:54 500 N BOWLAN ST 12 RECKLESS DRIVER
150707462249 7-7 14:54 PHILLIPS HWY AND ST AUGUSTINE RD 63 DISPUTE
150707462248 7-7 14:54 2000 E ST MARTINS DR 32 BURGLAR ALARM - AUDIBLE
150707462245 7-7 14:53 13100 ATLANTIC BLVD 4 53 TRAFFIC CRASH PERSON INJURED
150707462238 7-7 14:51 10300 SOUTHSIDE BLVD 9 THEFT
150707462242 7-7 14:50 ATLANTIC BLVD AND HODGES BLVD 4 53 TRAFFIC CRASH PERSON INJURED
150707462195 7-7 14:45 2900 BEACHWOOD BLVD 63 DISPUTE
150707462213 7-7 14:44 1700 W 30TH ST 21R BURGLARY RESIDENCE
150707462175 7-7 14:43 9100 MERRILL RD 63 DISPUTE
150707462226 7-7 14:41 9900 NEW KINGS RD 5388 ASSAULT INVOLVING INJURY
150707462228 7-7 14:41 3400 PHILLIPS HWY 1066 CANCEL
150707462208 7-7 14:41 7100 LENOX AVE 54 ILLEGALLY PARKED CAR
150707462217 7-7 14:41 4000 PHILLIPS HWY 13 SUSPICIOUS PERSON
150707462224 7-7 14:41 1400 MANOTAK AVE 63 DISPUTE
150707462223 7-7 14:39 100 SB/PARK 96 ASSIST MOTORIST
150707462218 7-7 14:39 S SAN PABLO RD AND BEACH BLVD 12 RECKLESS DRIVER
150707462222 7-7 14:39 ROOSEVELT BLVD AND S LONG BOW RD 1050 TRAFFIC STOP
150707462221 7-7 14:39 COMM/PICKETVILLE 1050 TRAFFIC STOP
150707462220 7-7 14:39 200 W 26 1050 TRAFFIC STOP
150707462179 7-7 14:38 10000 BRADLEY RD 27 MENTALLY ILL PERSON
150707462215 7-7 14:38 2200 VICKERS RD 63 DISPUTE
150707462210 7-7 14:36 N I95 EXPWY AND MAX LEGGETT PKWY 96 ASSIST MOTORIST
150707462137 7-7 14:34 3300 S SUNNYBROOK AVE 2288 DOMESTIC DISPUTE WITH/ASSAULT
150707462205 7-7 14:34 4200 CONFEDERATE POINT RD 63 DISPUTE
150707462204 7-7 14:33 10200 SHOPS LN 1066 CANCEL
150707462096 7-7 14:31 8600 VINING ST 2 63 DISPUTE INVOLVING ALCOHOL
150707462078 7-7 14:31 2300 PICKETTVILLE RD 96 ASSIST MOTORIST
150707462185 7-7 14:31 5700 TALTON LN 49 REPORT TO HOSPITAL
150707462192 7-7 14:30 10400 SAN JOSE BLVD 9 THEFT
150707462189 7-7 14:29 W UNIVERSITY BLVD AND ST AUGUSTINE RD 4 AUTO CRASH
150707462159 7-7 14:28 1300 E 31ST ST 76 ASSIST OTHER AGENCY
150707462141 7-7 14:26 5600 EVERGREEN PL 32 BURGLAR ALARM - AUDIBLE
150707462183 7-7 14:25 200 W UNION ST 2 DRUNK PERSON
150707462173 7-7 14:25 11500 LAKE MEAD AVE 54 ILLEGALLY PARKED CAR
150707462178 7-7 14:24 PHILLIPS HWY AND S I95EXIT KINGS RP 16 ROAD OBSTRUCTION
150707462172 7-7 14:22 4100 MONCRIEF RD 0 27 ARMED MENTALLY ILL PERSON
150707462174 7-7 14:21 ATLANTIC BLVD AND ART MUSEUM DR 1050 TRAFFIC STOP
150707462170 7-7 14:20 1500 DUNN AVE 4 AUTO CRASH
150707462103 7-7 14:19 1300 WOOD HILL PL 63 DISPUTE
150707462160 7-7 14:17 2700 FOREST MILL LN 68 CON GAME/FLIM FLAM
150707462165 7-7 14:17 400 STARRATT RD 76 ASSIST OTHER AGENCY
150707462163 7-7 14:16 1900 S LANE AVE 13 SUSPICIOUS PERSON
150707462142 7-7 14:15 W BATEAU RD AND BOATWRIGHT WAY 90 FIREWORKS
150707462151 7-7 14:13 100 RIVERSIDE AVE 4 AUTO CRASH
150707462153 7-7 14:12 8000 S OLD KINGS RD 2 63 DISPUTE INVOLVING ALCOHOL
150707462093 7-7 14:11 5400 COLLINS LAKES DR 21CT BURGLARY CONVEYANCE TELESERVE
150707462125 7-7 14:11 FALABELLA DR AND CORRALERO CT 1066 CANCEL
150707462121 7-7 14:11 COLD CREEK BLVD AND NORMANDY BLVD 0 13 ARMED SUSPICIOUS PERSON
150707462073 7-7 14:09 10800 KEY HAVEN BLVD 63 DISPUTE
150707462148 7-7 14:08 9100 TOTTENHAM CT 1066 CANCEL
150707462106 7-7 14:07 8700 NEWTON RD 63 DISPUTE
150707462131 7-7 14:07 CECIL COMMERCE CENTER PKWY AND OAKLEAF PLANTATION PKWY 4 AUTO CRASH
150707462140 7-7 14:07 700 VENUS-MARS CT 3 HIT AND RUN CRASH
150707462144 7-7 14:04 200 W UNION 1066 CANCEL
150707462094 7-7 14:04 7500 E JOHN F KENNEDY DR 63 DISPUTE
150707462143 7-7 14:04 200 W UNION 76 ASSIST OTHER AGENCY
150707462139 7-7 14:02 I295SB 1050 TRAFFIC STOP
150707462135 7-7 14:02 4500 BEACH BLVD 22 DOMESTIC DISTURBANCE
150707462133 7-7 14:01 5600 SEABOARD AVE 3388 DISCHARGING FIREARM AT PERSON
150707462130 7-7 14:01 13500 S SUTTON PARK DR 88J ASSAULT JUST OCCURRED
150707462126 7-7 14:00 S KERNAN BLVD AND ATLANTIC BLVD 4 AUTO CRASH
150707462127 7-7 14:00 BLANDING BLVD AND 103RD ST 4 AUTO CRASH
150707462084 7-7 13:59 1900 W 11TH ST 22 DOMESTIC DISTURBANCE
150707462098 7-7 13:59 7900 SOUTHSIDE BLVD 9J THEFT JUST OCCURRED
150707462122 7-7 13:58 8000 PHILLIPS HWY 9 THEFT
150707462074 7-7 13:57 100 PERRY CREEK DR 1066 CANCEL
150707462120 7-7 13:57 700 N LIBERTY 73 DRUG INVESTIGATION
150707462101 7-7 13:57 4000 SAN PABLO PKWY 37 UNVERIFIED 911 CALL
150707462023 7-7 13:56 5900 ROYALTY RD 32 BURGLAR ALARM - AUDIBLE
150707462114 7-7 13:56 9400 PHILLIPS HWY 4 AUTO CRASH
150707462113 7-7 13:55 2600 GREEN ST 63 DISPUTE
150707462108 7-7 13:55 N I95 EXPWY AND ZOO PKWY 12 RECKLESS DRIVER
150707462112 7-7 13:53 S MAIN ST AND PRUDENTIAL DR 4 AUTO CRASH
150707462059 7-7 13:53 11600 SPRINGBOARD DR 63 DISPUTE
150707462111 7-7 13:53 4200 S UNIVERSITY BLVD 2 63 DISPUTE INVOLVING ALCOHOL
150707462110 7-7 13:52 700 N LIBERTY 73 DRUG INVESTIGATION
150707462079 7-7 13:51 9100 11TH AVE 63 DISPUTE
150707461919 7-7 13:50 300 N LANE AVE 63 DISPUTE
150707462099 7-7 13:49 BROADWAY/EDGEWOOD 1050 TRAFFIC STOP
150707462097 7-7 13:48 I-295/ PHILLIPS HWY 38 TRAFFIC ASSIGNMENT
150707462095 7-7 13:47 8400 MERCHANTS WAY 4 AUTO CRASH
150707462090 7-7 13:46 3900 FREEL RD 32 BURGLAR ALARM - AUDIBLE
150707462087 7-7 13:46 200 W 67TH ST 29 WIRE DOWN
150707462089 7-7 13:45 S UNIVERSITY BLVD AND CRUZ RD 3 HIT AND RUN CRASH
150707462088 7-7 13:44 13900 BEACH BLVD 32 BURGLAR ALARM - AUDIBLE
150707462085 7-7 13:43 J TURNER BUTLER BLVD AND BELFORT RD 4 AUTO CRASH
150707462037 7-7 13:43 5600 WESCONNETT BLVD 42 FORGERY/WORTHLESS CHECK
150707462076 7-7 13:42 11400 BLOSSOM RIDGE DR 32 BURGLAR ALARM - AUDIBLE
150707462082 7-7 13:42 NORMANDY BLVD AND FOURAKER RD 16 ROAD OBSTRUCTION
150707462081 7-7 13:42 1500 S LANE AVE 21C BURGLARY CONVEYANCE
150707462061 7-7 13:41 N I95 EXPWY AND PARK ST 16 ROAD OBSTRUCTION
150707461983 7-7 13:40 S I295 EXPWY AND PRITCHARD RD 96 ASSIST MOTORIST
150707462048 7-7 13:39 600 W 16TH ST 80 PROSTITUTION (ONLY)
150707462022 7-7 13:39 3500 KINGSTON ST 63 DISPUTE
150707462065 7-7 13:38 8800 BEACH BLVD 13 SUSPICIOUS PERSON
150707462068 7-7 13:37 400 W 61ST ST 60 SUICIDE OR ATTEMPT
150707462056 7-7 13:37 8200 103RD ST 10J AUTO THEFT JUST OCCURRED
150707462043 7-7 13:36 5000 PLYMOUTH ST 63 DISPUTE
150707462049 7-7 13:34 100 N FULLER WARREN BRG 16 ROAD OBSTRUCTION
150707462012 7-7 13:34 E 8TH ST AND BRACKLAND ST 9T THEFT (TELESERVE)
150707462058 7-7 13:34 S LANE AVE AND E I10 EXPWY 16 ROAD OBSTRUCTION
150707462060 7-7 13:34 S I95 EXPWY AND N I295 EXPWY 1050 TRAFFIC STOP
150707462054 7-7 13:33 10100 PHILLIPS HWY 32X SILENT ALARM (ROBBERY PANIC OR AWARE)
150707462016 7-7 13:31 500 CASSAT AVE 6388 DISPUTE WITH ASSAULT
150707462051 7-7 13:29 I95SB/DUNN 1050 TRAFFIC STOP
150707461987 7-7 13:28 100 W 2ND ST 95 FRAUD/FORGED PRESCRIPTION
150707462011 7-7 13:27 500 E BAY ST 68T CON GAME/FLIM FLAM TELESERVE
150707461974 7-7 13:25 600 RIVERSIDE AVE 95ID IDENTITY THEFT
150707462035 7-7 13:24 8600 E BAYMEADOWS RD 2288 DOMESTIC DISPUTE WITH/ASSAULT
150707461941 7-7 13:23 5100 HANCOCK RD 32 BURGLAR ALARM - AUDIBLE
150707462027 7-7 13:23 5400 SAN JUAN AVE 4 AUTO CRASH
150707461954 7-7 13:23 7100 N MAIN ST 63 DISPUTE
150707462033 7-7 13:23 1800 W 4TH ST 21R BURGLARY RESIDENCE
150707462019 7-7 13:22 N MAIN ST AND W 8TH ST 13 SUSPICIOUS PERSON
150707461952 7-7 13:22 8100 BLANDING BLVD 63 DISPUTE
150707462030 7-7 13:21 LEM TURNER RD AND W EDGEWOOD AVE 12 RECKLESS DRIVER
150707462013 7-7 13:20 2800 E BELAIR RD 9 THEFT
150707462026 7-7 13:18 1500 HOPE VALLEY DR 5388 ASSAULT INVOLVING INJURY
150707462018 7-7 13:16 ROOSEVELT BLVD AND N I295 EXPWY 4 AUTO CRASH
150707461968 7-7 13:15 6800 NORMANDY BLVD 5582 HOLDING ONE FOR SHOPLIFTING
150707462014 7-7 13:12 3200 JUSTINA RD 13 SUSPICIOUS PERSON
150707461982 7-7 13:12 4100 S UNIVERSITY BLVD 27 MENTALLY ILL PERSON
150707461978 7-7 13:11 8500 ATLANTIC BLVD 63 DISPUTE
150707462008 7-7 13:09 15700 BAINEBRIDGE DR 32 BURGLAR ALARM - AUDIBLE
150707462001 7-7 13:09 W 45TH ST AND MONCRIEF RD 91 TRAFFIC LIGHT/RR CROSSING MALFUNCTION
150707462005 7-7 13:08 8500 103RD ST 9P THEFT IN PROGRESS
150707462009 7-7 13:08 9000 CRAVEN RD 38 TRAFFIC ASSIGNMENT
150707461995 7-7 13:07 3800 ROBERT C WEAVER DR 95ID IDENTITY THEFT
150707462007 7-7 13:07 2200 FLORIDA BLVD 4 AUTO CRASH
150707462003 7-7 13:07 1300 KINGS RD 62 PERSON CUT
150707462002 7-7 13:07 2300 VILLANOVA CIR 9 THEFT
150707461985 7-7 13:06 7400 MORSE AVE 21CT BURGLARY CONVEYANCE TELESERVE
150707462000 7-7 13:05 S I95 EXPWY AND PECAN PARK RD 12 RECKLESS DRIVER
150707461999 7-7 13:04 3500 UNIVERSITY BLVD 9J THEFT JUST OCCURRED
150707461988 7-7 13:01 6100 CALADESI CT 32 BURGLAR ALARM - AUDIBLE
150707461966 7-7 13:00 1600 E 16TH ST 63 DISPUTE
150707461917 7-7 13:00 S MC DUFF AVE AND POST ST 13 SUSPICIOUS PERSON
150707461992 7-7 12:59 8000 103RD ST 60 SUICIDE OR ATTEMPT
150707461979 7-7 12:59 500 E BAY ST 9T THEFT (TELESERVE)
150707461956 7-7 12:58 MC CORMICK RD AND MT PLEASANT RD 63 DISPUTE
150707461877 7-7 12:58 11900 PALM LAKE DR 96 ASSIST MOTORIST
150707461991 7-7 12:58 5600 EDENFIELD RD 54 ILLEGALLY PARKED CAR
150707461990 7-7 12:58 PARRAMORE RD AND COLLINS RD 96 ASSIST MOTORIST
150707461950 7-7 12:57 300 N OCEAN ST 9 THEFT
150707461986 7-7 12:56 1300 KINGS RD 9 THEFT
150707461980 7-7 12:56 MARTIN LUTHER KING JR PKWY AND N MAIN ST 4 AUTO CRASH
150707461976 7-7 12:54 3100 MANDELL DR 32 BURGLAR ALARM - AUDIBLE
150707461977 7-7 12:54 S I295 EXPWY AND LEE RD 16 ROAD OBSTRUCTION
150707461972 7-7 12:53 14700 MANDARIN RD 11 ABANDONED VEHICLE
150707461970 7-7 12:50 10000 ANDERS BLVD 38 TRAFFIC ASSIGNMENT
150707461963 7-7 12:50 S I95 EXPWY AND J TURNER BUTLER BLVD 12 RECKLESS DRIVER
150707461964 7-7 12:49 9000 ATLANTIC BLVD 63 DISPUTE
150707461965 7-7 12:49 JTB WB/GATE PRKWY 1050 TRAFFIC STOP
150707461915 7-7 12:47 4700 N ILAH RD 68 CON GAME/FLIM FLAM
150707461959 7-7 12:45 800 PRUDENTIAL DR 13 SUSPICIOUS PERSON
150707461881 7-7 12:45 3100 CECELIA ST 63 DISPUTE
150707461951 7-7 12:44 9400 STAPLES MILL DR 4 AUTO CRASH
150707461953 7-7 12:44 12000 COACHMAN LAKES WAY 32 BURGLAR ALARM - AUDIBLE
150707461911 7-7 12:44 700 N OCEAN ST 63 DISPUTE
150707461833 7-7 12:43 9100 OVIEDO RD 63 DISPUTE
150707461945 7-7 12:43 J TURNER BUTLER BLVD AND S I295 EXPWY 1066 CANCEL
150707461943 7-7 12:41 W I10 EXPWY AND GREELAND AV EXIT I10W RP 4 53 TRAFFIC CRASH PERSON INJURED
150707461942 7-7 12:41 W UNIVERSITY BLVD AND ST AUGUSTINE RD 32X SILENT ALARM (ROBBERY PANIC OR AWARE)
150707461932 7-7 12:38 7200 ARLINGTON EXPY 13 SUSPICIOUS PERSON
150707461929 7-7 12:37 1600 RIVER OAKS RD 3 HIT AND RUN CRASH
150707461845 7-7 12:36 10100 NEW BERLIN RD 1066 CANCEL
150707461849 7-7 12:36 8000 PHILLIPS HWY 9 THEFT
150707461927 7-7 12:35 S I295 EXPWY AND MONUMENT RD 12 RECKLESS DRIVER
150707461926 7-7 12:34 1900 KINGS RD 9 THEFT
150707461920 7-7 12:33 S KERNAN BLVD AND ATLANTIC BLVD 4 53 TRAFFIC CRASH PERSON INJURED
150707461922 7-7 12:31 W BEAVER ST AND MINNIE ST 1050 TRAFFIC STOP
150707461887 7-7 12:31 ST AUGUSTINE RD AND W UNIVERSITY BLVD 98 THROWING MISSILES
150707461916 7-7 12:30 11600 E CHERRY BARK DR 76 ASSIST OTHER AGENCY
150707461905 7-7 12:29 7000 N MAIN ST 8 MISSING PERSON
150707461902 7-7 12:29 N I95 EXPWY AND LEM TURNER RD 96 ASSIST MOTORIST
150707461912 7-7 12:28 2700 PARK ST 76 ASSIST OTHER AGENCY
150707461892 7-7 12:27 7800 LE MANS DR 21RJ BURGLARY RESIDENCE JUST OCCURRED
150707461906 7-7 12:26 5900 MERRILL RD 22 DOMESTIC DISTURBANCE
150707461886 7-7 12:25 3800 DOTTIE RD 22 DOMESTIC DISTURBANCE
150707461901 7-7 12:23 SOUTHSIDE BLVD AND ATLANTIC BLVD 4 53 TRAFFIC CRASH PERSON INJURED
150707461898 7-7 12:22 1400 BARNETT 1050 TRAFFIC STOP
150707461890 7-7 12:22 1000 SCRIVEN ST 68T CON GAME/FLIM FLAM TELESERVE
150707461894 7-7 12:21 BEAVER/RUSHING 1050 TRAFFIC STOP
150707461895 7-7 12:21 SOUTHSIDE BLVD AND HOGAN RD 1050 TRAFFIC STOP
150707461842 7-7 12:21 WILLOW BRANCH AVE AND REMINGTON ST 64 NOISE COMPLAINT
150707461835 7-7 12:20 3700 HOLLY GROVE AVE 32 BURGLAR ALARM - AUDIBLE
150707461870 7-7 12:18 2400 JAMMES RD 63 DISPUTE
150707461883 7-7 12:18 5600 S SHADY PINE ST 37 UNVERIFIED 911 CALL
150707461876 7-7 12:17 12700 DOGWOOD HILL DR 96 ASSIST MOTORIST
150707461880 7-7 12:15 RUSHING ST AND W BEAVER ST 1050 TRAFFIC STOP
150707461879 7-7 12:15 18700 WELLHAUSEN RD 76 ASSIST OTHER AGENCY
150707461878 7-7 12:14 700 N MAIN ST 0 23IJ ARMED ROBBERY INDIVIDUAL JUST OCCURRED
150707461825 7-7 12:13 500 W 6TH ST 27 MENTALLY ILL PERSON
150707461832 7-7 12:13 3800 S UNIVERSITY BLVD 2 DRUNK PERSON
150707461875 7-7 12:10 1400 RIVERPLACE BLVD 63 DISPUTE
150707461874 7-7 12:08 KINGS RD AND PALAFOX ST 1050 TRAFFIC STOP
150707461860 7-7 12:07 ZEPHYR WAY AND E WAVERLY DOCK RD 13 SUSPICIOUS PERSON
150707461871 7-7 12:06 7800 ALPHONS ST 9T THEFT (TELESERVE)
150707461818 7-7 12:06 5600 VERBENA RD 95IDT IDENTITY THEFT TELESERVE
150707461866 7-7 12:04 JTB/SALISBURY RD 1050 TRAFFIC STOP
150707461862 7-7 12:02 95SB @ DUNN 96 ASSIST MOTORIST
150707461858 7-7 12:02 S I295 EXPWY AND GATE PKWY 1 IMPAIRED/RECKLESS DRIVER
150707461856 7-7 12:01 E U S 90 HWY AND N US 301 HWY 12 RECKLESS DRIVER
150707461851 7-7 12:00 12800 BENTWATER DR 3 HIT AND RUN CRASH
150707461844 7-7 12:00 100 N US 301 HWY 9 THEFT